Time,TemperatureF,DewpointF,PressureIn,WindDirection,WindDirectionDegrees,WindSpeedMPH,WindSpeedGustMPH,Humidity,HourlyPrecipIn,Conditions,Clouds,dailyrainin,SoftwareType,DateUTC
2013-05-05 00:01:00,70.8,67.4,29.74,WNW,288,0.0,6.0,89,0.00,,---,0.00,VWS V14.01,2013-05-05 04:01:00,
2013-05-05 00:02:00,70.8,67.4,29.74,WNW,290,0.0,6.0,89,0.00,,---,0.00,VWS V14.01,2013-05-05 04:02:00,
2013-05-05 00:05:00,70.6,67.2,29.74,WNW,300,0.0,6.0,89,0.00,,---,0.00,VWS V14.01,2013-05-05 04:05:00,
2013-05-05 00:09:00,70.6,67.2,29.74,WSW,243,0.0,2.0,89,0.00,,---,0.00,VWS V14.01,2013-05-05 04:09:00,
2013-05-05 00:14:00,70.6,67.5,29.74,WSW,248,0.0,2.0,90,0.00,,---,0.00,VWS V14.01,2013-05-05 04:14:00,
2013-05-05 00:15:00,70.6,67.5,29.74,WSW,248,0.0,2.0,90,0.00,,---,0.00,VWS V14.01,2013-05-05 04:15:00,
2013-05-05 00:18:00,70.6,67.5,29.74,WSW,248,0.0,2.0,90,0.00,,---,0.00,VWS V14.01,2013-05-05 04:18:00,
2013-05-05 00:21:00,70.6,67.5,29.74,WNW,294,0.0,2.0,90,0.00,,---,0.00,VWS V14.01,2013-05-05 04:21:00,
2013-05-05 00:23:00,70.4,67.3,29.74,WSW,257,1.0,2.0,90,0.00,,---,0.00,VWS V14.01,2013-05-05 04:23:00,
2013-05-05 00:24:00,70.4,67.3,29.74,WNW,302,0.0,2.0,90,0.00,,---,0.00,VWS V14.01,2013-05-05 04:24:00,
2013-05-05 00:29:00,70.4,67.3,29.74,WNW,302,0.0,2.0,90,0.00,,---,0.00,VWS V14.01,2013-05-05 04:29:00,
2013-05-05 00:30:00,70.4,67.3,29.74,WSW,240,0.0,2.0,90,0.00,,---,0.00,VWS V14.01,2013-05-05 04:30:00,
2013-05-05 00:32:00,70.3,67.2,29.74,West,281,0.0,2.0,90,0.00,,---,0.00,VWS V14.01,2013-05-05 04:32:00,
2013-05-05 00:35:00,70.3,67.2,29.74,WSW,248,0.0,2.0,90,0.00,,---,0.00,VWS V14.01,2013-05-05 04:35:00,
2013-05-05 00:36:00,70.1,67.4,29.74,WSW,247,0.0,2.0,91,0.00,,---,0.00,VWS V14.01,2013-05-05 04:36:00,
2013-05-05 00:38:00,70.1,67.4,29.74,WNW,297,0.0,2.0,91,0.00,,---,0.00,VWS V14.01,2013-05-05 04:38:00,
2013-05-05 00:41:00,70.1,67.4,29.74,WNW,297,0.0,2.0,91,0.00,,---,0.00,VWS V14.01,2013-05-05 04:41:00,
2013-05-05 00:45:00,69.9,67.2,29.74,West,271,0.0,2.0,91,0.00,,---,0.00,VWS V14.01,2013-05-05 04:45:00,
2013-05-05 00:47:00,69.8,67.1,29.74,West,264,0.0,2.0,91,0.00,,---,0.00,VWS V14.01,2013-05-05 04:47:00,
2013-05-05 00:48:00,69.8,67.1,29.74,SW,226,0.0,2.0,91,0.00,,---,0.00,VWS V14.01,2013-05-05 04:48:00,
2013-05-05 00:52:00,69.8,67.1,29.74,WSW,248,0.0,2.0,91,0.00,,---,0.00,VWS V14.01,2013-05-05 04:52:00,
2013-05-05 00:55:00,69.6,66.9,29.74,WNW,285,0.0,2.0,91,0.00,,---,0.00,VWS V14.01,2013-05-05 04:55:00,
2013-05-05 00:56:00,69.6,66.9,29.74,WNW,285,0.0,2.0,91,0.00,,---,0.00,VWS V14.01,2013-05-05 04:56:00,
2013-05-05 00:59:00,69.6,66.9,29.74,WNW,285,0.0,2.0,91,0.00,,---,0.00,VWS V14.01,2013-05-05 04:59:00,
2013-05-05 01:00:00,69.6,66.9,29.74,WSW,250,0.0,2.0,91,0.00,,---,0.00,VWS V14.01,2013-05-05 05:00:00,
2013-05-05 01:01:00,69.6,66.9,29.74,WSW,250,2.0,2.0,91,0.00,,---,0.00,VWS V14.01,2013-05-05 05:01:00,
2013-05-05 01:03:00,69.4,66.7,29.74,West,278,0.0,6.0,91,0.00,,---,0.00,VWS V14.01,2013-05-05 05:03:00,
2013-05-05 01:05:00,69.4,66.7,29.74,West,268,6.0,6.0,91,0.00,,---,0.00,VWS V14.01,2013-05-05 05:05:00,
2013-05-05 01:07:00,69.4,66.7,29.74,West,264,0.0,6.0,91,0.00,,---,0.00,VWS V14.01,2013-05-05 05:07:00,
2013-05-05 01:08:00,69.4,66.7,29.74,SW,224,0.0,6.0,91,0.00,,---,0.00,VWS V14.01,2013-05-05 05:08:00,
2013-05-05 01:11:00,69.4,66.7,29.74,WSW,252,0.0,6.0,91,0.00,,---,0.00,VWS V14.01,2013-05-05 05:11:00,
2013-05-05 01:13:00,69.3,66.6,29.74,WSW,253,0.0,6.0,91,0.00,,---,0.00,VWS V14.01,2013-05-05 05:13:00,
2013-05-05 01:16:00,69.3,66.6,29.74,WNW,301,0.0,6.0,91,0.00,,---,0.00,VWS V14.01,2013-05-05 05:16:00,
2013-05-05 01:19:00,69.3,66.6,29.74,WSW,247,0.0,6.0,91,0.00,,---,0.00,VWS V14.01,2013-05-05 05:19:00,
2013-05-05 01:20:00,69.1,66.4,29.74,WSW,247,0.0,6.0,91,0.00,,---,0.00,VWS V14.01,2013-05-05 05:20:00,
2013-05-05 01:21:00,69.1,66.4,29.74,SW,231,2.0,6.0,91,0.00,,---,0.00,VWS V14.01,2013-05-05 05:21:00,
2013-05-05 01:23:00,69.1,66.4,29.74,WNW,288,0.0,6.0,91,0.00,,---,0.00,VWS V14.01,2013-05-05 05:23:00,
2013-05-05 01:24:00,69.1,66.4,29.74,WSW,238,0.0,6.0,91,0.00,,---,0.00,VWS V14.01,2013-05-05 05:24:00,
2013-05-05 01:26:00,69.1,66.4,29.74,WSW,238,0.0,6.0,91,0.00,,---,0.00,VWS V14.01,2013-05-05 05:26:00,
2013-05-05 01:28:00,69.1,66.4,29.74,WSW,243,0.0,6.0,91,0.00,,---,0.00,VWS V14.01,2013-05-05 05:28:00,
2013-05-05 01:29:00,69.1,66.4,29.74,WSW,243,0.0,6.0,91,0.00,,---,0.00,VWS V14.01,2013-05-05 05:29:00,
2013-05-05 01:31:00,69.1,66.4,29.74,WSW,243,0.0,6.0,91,0.00,,---,0.00,VWS V14.01,2013-05-05 05:31:00,
2013-05-05 01:35:00,69.1,66.4,29.73,NW,304,0.0,6.0,91,0.00,,---,0.00,VWS V14.01,2013-05-05 05:35:00,
2013-05-05 01:36:00,69.1,66.4,29.73,NW,304,0.0,6.0,91,0.00,,---,0.00,VWS V14.01,2013-05-05 05:36:00,
2013-05-05 01:38:00,69.1,66.4,29.73,NW,304,0.0,6.0,91,0.00,,---,0.00,VWS V14.01,2013-05-05 05:38:00,
2013-05-05 01:41:00,69.1,66.4,29.73,WNW,302,1.0,6.0,91,0.00,,---,0.00,VWS V14.01,2013-05-05 05:41:00,
2013-05-05 01:43:00,68.9,66.2,29.73,WNW,297,2.0,6.0,91,0.00,,---,0.00,VWS V14.01,2013-05-05 05:43:00,
2013-05-05 01:45:00,68.9,66.2,29.73,WNW,297,2.0,6.0,91,0.00,,---,0.00,VWS V14.01,2013-05-05 05:45:00,
2013-05-05 01:47:00,68.9,66.2,29.73,NW,326,2.0,6.0,91,0.00,,---,0.00,VWS V14.01,2013-05-05 05:47:00,
2013-05-05 01:50:00,68.8,66.1,29.73,WSW,250,4.0,6.0,91,0.00,,---,0.00,VWS V14.01,2013-05-05 05:50:00,
2013-05-05 01:52:00,68.8,66.1,29.73,WNW,290,0.0,6.0,91,0.00,,---,0.00,VWS V14.01,2013-05-05 05:52:00,
2013-05-05 01:53:00,68.8,66.4,29.73,NNW,339,0.0,6.0,92,0.00,,---,0.00,VWS V14.01,2013-05-05 05:53:00,
2013-05-05 01:55:00,68.6,66.2,29.73,North,0,3.0,6.0,92,0.00,,---,0.00,VWS V14.01,2013-05-05 05:55:00,
2013-05-05 01:57:00,68.6,66.2,29.73,North,354,0.0,6.0,92,0.00,,---,0.00,VWS V14.01,2013-05-05 05:57:00,
2013-05-05 02:00:00,68.6,66.2,29.73,North,355,9.0,9.0,92,0.00,,---,0.00,VWS V14.01,2013-05-05 06:00:00,
2013-05-05 02:01:00,68.4,66.3,29.73,NNW,330,0.0,9.0,93,0.00,,---,0.00,VWS V14.01,2013-05-05 06:01:00,
2013-05-05 02:02:00,68.4,66.3,29.73,NW,307,1.0,9.0,93,0.00,,---,0.00,VWS V14.01,2013-05-05 06:02:00,
2013-05-05 02:04:00,68.3,66.2,29.73,NW,307,0.0,9.0,93,0.00,,---,0.00,VWS V14.01,2013-05-05 06:04:00,
2013-05-05 02:06:00,68.3,66.2,29.73,NW,325,0.0,9.0,93,0.00,,---,0.00,VWS V14.01,2013-05-05 06:06:00,
2013-05-05 02:08:00,68.3,66.2,29.73,NNW,330,6.0,9.0,93,0.00,,---,0.00,VWS V14.01,2013-05-05 06:08:00,
2013-05-05 02:11:00,68.1,66.0,29.73,North,349,4.0,9.0,93,0.00,,---,0.00,VWS V14.01,2013-05-05 06:11:00,
2013-05-05 02:12:00,68.1,66.3,29.73,NNW,342,4.0,9.0,94,0.00,,---,0.00,VWS V14.01,2013-05-05 06:12:00,
2013-05-05 02:15:00,68.1,66.3,29.73,NNW,342,4.0,9.0,94,0.00,,---,0.00,VWS V14.01,2013-05-05 06:15:00,
2013-05-05 02:16:00,68.1,66.3,29.73,NNW,333,1.0,9.0,94,0.00,,---,0.00,VWS V14.01,2013-05-05 06:16:00,
2013-05-05 02:17:00,68.1,66.3,29.73,NNW,333,0.0,9.0,94,0.00,,---,0.00,VWS V14.01,2013-05-05 06:17:00,
2013-05-05 02:18:00,68.1,66.3,29.73,NNW,333,2.0,9.0,94,0.00,,---,0.00,VWS V14.01,2013-05-05 06:18:00,
2013-05-05 02:23:00,67.9,66.1,29.72,NNW,328,4.0,9.0,94,0.00,,---,0.00,VWS V14.01,2013-05-05 06:23:00,
2013-05-05 02:25:00,67.9,66.1,29.72,NW,305,7.0,9.0,94,0.00,,---,0.00,VWS V14.01,2013-05-05 06:25:00,
2013-05-05 02:28:00,67.9,66.1,29.72,NNW,332,9.0,10.0,94,0.00,,---,0.00,VWS V14.01,2013-05-05 06:28:00,
2013-05-05 02:29:00,67.8,66.0,29.72,NNW,332,3.0,10.0,94,0.00,,---,0.00,VWS V14.01,2013-05-05 06:29:00,
2013-05-05 02:37:00,67.6,65.8,29.72,West,272,5.0,10.0,94,0.00,,---,0.00,VWS V14.01,2013-05-05 06:37:00,
2013-05-05 02:40:00,67.6,65.8,29.72,WNW,301,0.0,10.0,94,0.00,,---,0.00,VWS V14.01,2013-05-05 06:40:00,
2013-05-05 02:44:00,67.6,66.1,29.72,NW,304,6.0,10.0,95,0.01,,---,0.01,VWS V14.01,2013-05-05 06:44:00,
2013-05-05 02:46:00,67.6,66.1,29.72,NW,304,6.0,10.0,95,0.01,,---,0.01,VWS V14.01,2013-05-05 06:46:00,
2013-05-05 02:50:00,67.6,66.1,29.72,NW,319,4.0,10.0,95,0.01,,---,0.01,VWS V14.01,2013-05-05 06:50:00,
2013-05-05 02:51:00,67.4,65.9,29.72,NNW,329,0.0,10.0,95,0.01,,---,0.01,VWS V14.01,2013-05-05 06:51:00,
2013-05-05 02:53:00,67.4,65.9,29.72,NNW,335,0.0,10.0,95,0.01,,---,0.01,VWS V14.01,2013-05-05 06:53:00,
2013-05-05 02:56:00,67.3,65.5,29.72,NNW,327,1.0,10.0,94,0.01,,---,0.01,VWS V14.01,2013-05-05 06:56:00,
2013-05-05 02:57:00,67.1,65.6,29.72,NW,323,0.0,10.0,95,0.01,,---,0.01,VWS V14.01,2013-05-05 06:57:00,
2013-05-05 02:58:00,67.1,65.6,29.72,NW,324,1.0,10.0,95,0.01,,---,0.01,VWS V14.01,2013-05-05 06:58:00,
2013-05-05 03:00:00,67.1,65.6,29.72,WSW,245,0.0,10.0,95,0.01,,---,0.01,VWS V14.01,2013-05-05 07:00:00,
2013-05-05 03:01:00,67.1,65.6,29.72,NW,314,0.0,10.0,95,0.01,,---,0.01,VWS V14.01,2013-05-05 07:01:00,
2013-05-05 03:05:00,67.1,65.6,29.72,SW,229,0.0,10.0,95,0.01,,---,0.01,VWS V14.01,2013-05-05 07:05:00,
2013-05-05 03:07:00,67.1,65.6,29.72,WNW,300,0.0,10.0,95,0.01,,---,0.01,VWS V14.01,2013-05-05 07:07:00,
2013-05-05 03:12:00,67.1,65.6,29.72,NW,319,1.0,10.0,95,0.01,,---,0.01,VWS V14.01,2013-05-05 07:12:00,
2013-05-05 03:15:00,67.3,65.8,29.72,NW,323,4.0,10.0,95,0.01,,---,0.01,VWS V14.01,2013-05-05 07:15:00,
2013-05-05 03:17:00,67.3,65.8,29.72,NNW,328,5.0,10.0,95,0.01,,---,0.01,VWS V14.01,2013-05-05 07:17:00,
2013-05-05 03:19:00,67.3,65.8,29.72,NNW,328,5.0,10.0,95,0.01,,---,0.01,VWS V14.01,2013-05-05 07:19:00,
2013-05-05 03:21:00,67.3,65.8,29.72,NW,319,0.0,10.0,95,0.01,,---,0.01,VWS V14.01,2013-05-05 07:21:00,
2013-05-05 03:25:00,66.9,65.1,29.72,WNW,291,0.0,10.0,94,0.01,,---,0.01,VWS V14.01,2013-05-05 07:25:00,
2013-05-05 03:30:00,66.8,65.0,29.72,WNW,300,0.0,10.0,94,0.01,,---,0.01,VWS V14.01,2013-05-05 07:30:00,
2013-05-05 03:33:00,66.8,65.0,29.72,NW,311,0.0,10.0,94,0.01,,---,0.01,VWS V14.01,2013-05-05 07:33:00,
2013-05-05 03:35:00,66.8,65.0,29.72,NW,326,7.0,10.0,94,0.01,,---,0.01,VWS V14.01,2013-05-05 07:35:00,
2013-05-05 03:36:00,66.6,64.8,29.72,NW,326,0.0,10.0,94,0.01,,---,0.01,VWS V14.01,2013-05-05 07:36:00,
2013-05-05 03:37:00,66.6,64.8,29.72,NW,323,0.0,10.0,94,0.01,,---,0.01,VWS V14.01,2013-05-05 07:37:00,
2013-05-05 03:42:00,66.6,64.8,29.72,NW,323,0.0,10.0,94,0.01,,---,0.01,VWS V14.01,2013-05-05 07:42:00,
2013-05-05 03:43:00,66.6,64.8,29.72,NW,318,0.0,10.0,94,0.01,,---,0.01,VWS V14.01,2013-05-05 07:43:00,
2013-05-05 03:48:00,66.4,64.6,29.72,NW,307,0.0,10.0,94,0.01,,---,0.01,VWS V14.01,2013-05-05 07:48:00,
2013-05-05 03:51:00,66.3,64.2,29.72,NW,325,1.0,10.0,93,0.01,,---,0.01,VWS V14.01,2013-05-05 07:51:00,
2013-05-05 03:53:00,66.3,64.2,29.72,NW,321,0.0,10.0,93,0.01,,---,0.01,VWS V14.01,2013-05-05 07:53:00,
2013-05-05 03:54:00,66.3,64.2,29.72,NNW,341,9.0,10.0,93,0.01,,---,0.01,VWS V14.01,2013-05-05 07:54:00,
2013-05-05 03:57:00,66.1,64.0,29.72,WNW,285,0.0,10.0,93,0.01,,---,0.01,VWS V14.01,2013-05-05 07:57:00,
2013-05-05 04:00:00,66.0,63.9,29.72,NNW,334,2.0,10.0,93,0.01,,---,0.01,VWS V14.01,2013-05-05 08:00:00,
2013-05-05 04:01:00,66.0,63.9,29.72,NNW,334,2.0,10.0,93,0.01,,---,0.01,VWS V14.01,2013-05-05 08:01:00,
2013-05-05 04:03:00,66.0,63.9,29.72,West,273,0.0,10.0,93,0.01,,---,0.01,VWS V14.01,2013-05-05 08:03:00,
2013-05-05 04:07:00,65.8,63.7,29.72,WNW,290,7.0,10.0,93,0.01,,---,0.01,VWS V14.01,2013-05-05 08:07:00,
2013-05-05 04:12:00,65.5,63.1,29.72,WNW,297,2.0,7.0,92,0.00,,---,0.01,VWS V14.01,2013-05-05 08:12:00,
2013-05-05 04:14:00,65.5,63.1,29.72,West,271,2.0,7.0,92,0.00,,---,0.01,VWS V14.01,2013-05-05 08:14:00,
2013-05-05 04:18:00,65.6,63.2,29.72,WNW,297,6.0,7.0,92,0.00,,---,0.01,VWS V14.01,2013-05-05 08:18:00,
2013-05-05 04:19:00,65.6,62.9,29.73,NNW,337,2.0,7.0,91,0.00,,---,0.01,VWS V14.01,2013-05-05 08:19:00,
2013-05-05 04:23:00,65.5,62.8,29.73,NNW,332,1.0,7.0,91,0.00,,---,0.01,VWS V14.01,2013-05-05 08:23:00,
2013-05-05 04:24:00,65.5,62.8,29.73,NNW,332,0.0,7.0,91,0.00,,---,0.01,VWS V14.01,2013-05-05 08:24:00,
2013-05-05 04:25:00,65.5,62.8,29.73,NNW,331,6.0,9.0,91,0.00,,---,0.01,VWS V14.01,2013-05-05 08:25:00,
2013-05-05 04:28:00,65.5,62.8,29.73,NNW,330,2.0,9.0,91,0.00,,---,0.01,VWS V14.01,2013-05-05 08:28:00,
2013-05-05 04:29:00,65.6,62.9,29.73,NNW,330,2.0,9.0,91,0.00,,---,0.01,VWS V14.01,2013-05-05 08:29:00,
2013-05-05 04:30:00,65.6,62.9,29.73,NNW,330,4.0,9.0,91,0.00,,---,0.01,VWS V14.01,2013-05-05 08:30:00,
2013-05-05 04:34:00,65.6,62.6,29.73,West,268,0.0,9.0,90,0.00,,---,0.01,VWS V14.01,2013-05-05 08:34:00,
2013-05-05 04:36:00,65.6,62.3,29.73,NW,309,0.0,9.0,89,0.00,,---,0.01,VWS V14.01,2013-05-05 08:36:00,
2013-05-05 04:40:00,65.6,62.3,29.73,NW,309,0.0,9.0,89,0.00,,---,0.01,VWS V14.01,2013-05-05 08:40:00,
2013-05-05 04:43:00,66.0,62.3,29.73,North,357,0.0,9.0,88,0.00,,---,0.01,VWS V14.01,2013-05-05 08:43:00,
2013-05-05 04:46:00,66.0,62.0,29.73,WSW,242,0.0,9.0,87,0.00,,---,0.01,VWS V14.01,2013-05-05 08:46:00,
2013-05-05 04:47:00,66.1,62.1,29.73,NW,309,0.0,9.0,87,0.00,,---,0.01,VWS V14.01,2013-05-05 08:47:00,
2013-05-05 04:50:00,66.1,62.1,29.73,WNW,294,1.0,9.0,87,0.00,,---,0.01,VWS V14.01,2013-05-05 08:50:00,
2013-05-05 04:51:00,66.1,62.1,29.73,WNW,299,1.0,9.0,87,0.00,,---,0.01,VWS V14.01,2013-05-05 08:51:00,
2013-05-05 04:52:00,66.1,61.8,29.73,WNW,300,2.0,9.0,86,0.00,,---,0.01,VWS V14.01,2013-05-05 08:52:00,
2013-05-05 04:55:00,66.1,61.8,29.73,WNW,300,0.0,9.0,86,0.00,,---,0.01,VWS V14.01,2013-05-05 08:55:00,
2013-05-05 04:58:00,66.3,61.7,29.73,NNW,329,2.0,9.0,85,0.00,,---,0.01,VWS V14.01,2013-05-05 08:58:00,
2013-05-05 04:59:00,66.3,61.7,29.73,NNW,329,2.0,9.0,85,0.00,,---,0.01,VWS V14.01,2013-05-05 08:59:00,
2013-05-05 05:04:00,66.3,61.7,29.73,NNW,328,2.0,9.0,85,0.00,,---,0.01,VWS V14.01,2013-05-05 09:04:00,
2013-05-05 05:05:00,66.3,61.3,29.73,NW,316,2.0,7.0,84,0.00,,---,0.01,VWS V14.01,2013-05-05 09:05:00,
2013-05-05 05:06:00,66.3,61.3,29.73,NW,316,2.0,7.0,84,0.00,,---,0.01,VWS V14.01,2013-05-05 09:06:00,
2013-05-05 05:10:00,66.3,61.3,29.73,NW,317,0.0,7.0,84,0.00,,---,0.01,VWS V14.01,2013-05-05 09:10:00,
2013-05-05 05:11:00,66.4,61.1,29.73,WNW,290,5.0,7.0,83,0.00,,---,0.01,VWS V14.01,2013-05-05 09:11:00,
2013-05-05 05:13:00,66.3,60.7,29.73,NNW,335,6.0,7.0,82,0.00,,---,0.01,VWS V14.01,2013-05-05 09:13:00,
2013-05-05 05:15:00,66.4,60.7,29.73,WSW,250,7.0,7.0,82,0.00,,---,0.01,VWS V14.01,2013-05-05 09:15:00,
2013-05-05 05:18:00,66.4,60.4,29.73,WNW,285,2.0,7.0,81,0.00,,---,0.01,VWS V14.01,2013-05-05 09:18:00,
2013-05-05 05:19:00,66.4,60.4,29.73,WNW,285,1.0,7.0,81,0.00,,---,0.01,VWS V14.01,2013-05-05 09:19:00,
2013-05-05 05:21:00,66.4,60.0,29.73,WNW,287,5.0,7.0,80,0.00,,---,0.01,VWS V14.01,2013-05-05 09:21:00,
2013-05-05 05:24:00,66.4,60.0,29.73,WNW,287,5.0,7.0,80,0.00,,---,0.01,VWS V14.01,2013-05-05 09:24:00,
2013-05-05 05:25:00,66.3,60.0,29.73,NW,314,3.0,7.0,80,0.00,,---,0.01,VWS V14.01,2013-05-05 09:25:00,
2013-05-05 05:26:00,66.3,59.6,29.73,NNW,333,0.0,7.0,79,0.00,,---,0.01,VWS V14.01,2013-05-05 09:26:00,
2013-05-05 05:31:00,66.1,59.0,29.73,NW,326,7.0,7.0,78,0.00,,---,0.01,VWS V14.01,2013-05-05 09:31:00,
2013-05-05 05:33:00,66.1,58.7,29.74,NNW,343,3.0,7.0,77,0.00,,---,0.01,VWS V14.01,2013-05-05 09:33:00,
2013-05-05 05:35:00,66.1,58.7,29.74,NNW,345,0.0,7.0,77,0.00,,---,0.01,VWS V14.01,2013-05-05 09:35:00,
2013-05-05 05:39:00,66.1,58.7,29.74,NW,321,0.0,7.0,77,0.00,,---,0.01,VWS V14.01,2013-05-05 09:39:00,
2013-05-05 05:41:00,66.1,58.7,29.74,NW,309,6.0,7.0,77,0.00,,---,0.01,VWS V14.01,2013-05-05 09:41:00,
2013-05-05 05:42:00,66.1,58.7,29.74,NW,321,0.0,7.0,77,0.00,,---,0.01,VWS V14.01,2013-05-05 09:42:00,
2013-05-05 05:43:00,66.1,58.7,29.74,NW,321,2.0,7.0,77,0.00,,---,0.01,VWS V14.01,2013-05-05 09:43:00,
2013-05-05 05:46:00,66.1,58.7,29.74,NW,324,2.0,7.0,77,0.00,,---,0.01,VWS V14.01,2013-05-05 09:46:00,
2013-05-05 05:48:00,66.1,58.7,29.74,NNW,336,6.0,7.0,77,0.00,,---,0.01,VWS V14.01,2013-05-05 09:48:00,
2013-05-05 05:52:00,66.1,58.3,29.74,WNW,293,2.0,7.0,76,0.00,,---,0.01,VWS V14.01,2013-05-05 09:52:00,
2013-05-05 05:55:00,66.1,58.3,29.74,NW,317,2.0,7.0,76,0.00,,---,0.01,VWS V14.01,2013-05-05 09:55:00,
2013-05-05 05:57:00,66.1,58.0,29.74,WNW,298,0.0,7.0,75,0.00,,---,0.01,VWS V14.01,2013-05-05 09:57:00,
2013-05-05 05:58:00,66.1,58.3,29.74,WNW,292,0.0,7.0,76,0.00,,---,0.01,VWS V14.01,2013-05-05 09:58:00,
2013-05-05 05:59:00,66.0,58.2,29.74,WNW,292,0.0,7.0,76,0.00,,---,0.01,VWS V14.01,2013-05-05 09:59:00,
2013-05-05 06:05:00,66.0,58.2,29.74,North,352,8.0,8.0,76,0.00,,---,0.01,VWS V14.01,2013-05-05 10:05:00,
2013-05-05 06:08:00,65.8,57.7,29.74,West,270,5.0,8.0,75,0.00,,---,0.01,VWS V14.01,2013-05-05 10:08:00,
2013-05-05 06:10:00,65.6,57.5,29.74,NW,321,2.0,8.0,75,0.00,,---,0.01,VWS V14.01,2013-05-05 10:10:00,
2013-05-05 06:11:00,65.6,57.5,29.74,NW,321,2.0,8.0,75,0.00,,---,0.01,VWS V14.01,2013-05-05 10:11:00,
2013-05-05 06:12:00,65.6,57.5,29.74,NW,321,0.0,8.0,75,0.00,,---,0.01,VWS V14.01,2013-05-05 10:12:00,
2013-05-05 06:13:00,65.5,57.4,29.74,WNW,285,4.0,8.0,75,0.00,,---,0.01,VWS V14.01,2013-05-05 10:13:00,
2013-05-05 06:16:00,65.5,57.0,29.74,WSW,249,10.0,10.0,74,0.00,,---,0.01,VWS V14.01,2013-05-05 10:16:00,
2013-05-05 06:19:00,65.5,57.0,29.75,NNW,337,4.0,10.0,74,0.00,,---,0.01,VWS V14.01,2013-05-05 10:19:00,
2013-05-05 06:20:00,65.5,57.0,29.75,NNW,337,4.0,10.0,74,0.00,,---,0.01,VWS V14.01,2013-05-05 10:20:00,
2013-05-05 06:23:00,65.3,56.8,29.75,NNW,338,4.0,10.0,74,0.00,,---,0.01,VWS V14.01,2013-05-05 10:23:00,
2013-05-05 06:25:00,65.5,57.0,29.75,WSW,239,7.0,10.0,74,0.00,,---,0.01,VWS V14.01,2013-05-05 10:25:00,
2013-05-05 06:27:00,65.3,56.4,29.75,North,356,6.0,10.0,73,0.00,,---,0.01,VWS V14.01,2013-05-05 10:27:00,
2013-05-05 06:28:00,65.3,56.4,29.75,North,356,2.0,10.0,73,0.00,,---,0.01,VWS V14.01,2013-05-05 10:28:00,
2013-05-05 06:33:00,65.3,56.4,29.75,NW,322,5.0,10.0,73,0.00,,---,0.01,VWS V14.01,2013-05-05 10:33:00,
2013-05-05 06:34:00,65.3,56.4,29.76,North,354,5.0,10.0,73,0.00,,---,0.01,VWS V14.01,2013-05-05 10:34:00,
2013-05-05 06:38:00,65.2,56.0,29.76,NNW,347,2.0,10.0,72,0.00,,---,0.01,VWS V14.01,2013-05-05 10:38:00,
2013-05-05 06:41:00,65.2,56.0,29.76,NNW,347,2.0,10.0,72,0.00,,---,0.01,VWS V14.01,2013-05-05 10:41:00,
2013-05-05 06:44:00,65.2,56.0,29.76,NNW,328,7.0,10.0,72,0.00,,---,0.01,VWS V14.01,2013-05-05 10:44:00,
2013-05-05 06:45:00,65.0,55.4,29.76,NW,313,6.0,10.0,71,0.00,,---,0.01,VWS V14.01,2013-05-05 10:45:00,
2013-05-05 06:47:00,65.0,55.4,29.76,NW,313,6.0,10.0,71,0.00,,---,0.01,VWS V14.01,2013-05-05 10:47:00,
2013-05-05 06:49:00,65.0,55.0,29.76,NNW,332,3.0,10.0,70,0.00,,---,0.01,VWS V14.01,2013-05-05 10:49:00,
2013-05-05 06:50:00,65.0,55.0,29.76,North,351,5.0,10.0,70,0.00,,---,0.01,VWS V14.01,2013-05-05 10:50:00,
2013-05-05 06:54:00,65.0,55.4,29.76,North,355,3.0,10.0,71,0.00,,---,0.01,VWS V14.01,2013-05-05 10:54:00,
2013-05-05 06:56:00,64.8,55.2,29.76,NNW,334,6.0,10.0,71,0.00,,---,0.01,VWS V14.01,2013-05-05 10:56:00,
2013-05-05 06:58:00,65.0,55.4,29.76,NNW,333,4.0,10.0,71,0.00,,---,0.01,VWS V14.01,2013-05-05 10:58:00,
2013-05-05 07:05:00,64.8,55.2,29.76,NNW,344,8.0,10.0,71,0.00,,---,0.01,VWS V14.01,2013-05-05 11:05:00,
2013-05-05 07:06:00,65.0,55.0,29.77,NNW,342,4.0,10.0,70,0.00,,---,0.01,VWS V14.01,2013-05-05 11:06:00,
2013-05-05 07:08:00,65.0,55.0,29.77,NNW,330,5.0,10.0,70,0.00,,---,0.01,VWS V14.01,2013-05-05 11:08:00,
2013-05-05 07:09:00,65.0,55.0,29.77,NW,320,3.0,10.0,70,0.00,,---,0.01,VWS V14.01,2013-05-05 11:09:00,
2013-05-05 07:12:00,65.0,55.0,29.77,NW,320,3.0,10.0,70,0.00,,---,0.01,VWS V14.01,2013-05-05 11:12:00,
2013-05-05 07:13:00,65.0,55.4,29.77,NNW,341,8.0,10.0,71,0.00,,---,0.01,VWS V14.01,2013-05-05 11:13:00,
2013-05-05 07:14:00,65.0,55.4,29.77,NNW,345,10.0,10.0,71,0.00,,---,0.01,VWS V14.01,2013-05-05 11:14:00,
2013-05-05 07:16:00,65.0,55.4,29.77,North,358,1.0,10.0,71,0.00,,---,0.01,VWS V14.01,2013-05-05 11:16:00,
2013-05-05 07:18:00,65.2,55.6,29.77,NNW,338,4.0,10.0,71,0.00,,---,0.01,VWS V14.01,2013-05-05 11:18:00,
2013-05-05 07:19:00,65.2,55.6,29.78,NNW,338,0.0,10.0,71,0.00,,---,0.01,VWS V14.01,2013-05-05 11:19:00,
2013-05-05 07:20:00,65.2,55.6,29.78,NW,323,9.0,10.0,71,0.00,,---,0.01,VWS V14.01,2013-05-05 11:20:00,
2013-05-05 07:21:00,65.2,55.6,29.78,NNW,329,5.0,10.0,71,0.00,,---,0.01,VWS V14.01,2013-05-05 11:21:00,
2013-05-05 07:23:00,65.2,55.6,29.78,NNW,328,5.0,10.0,71,0.00,,---,0.01,VWS V14.01,2013-05-05 11:23:00,
2013-05-05 07:24:00,65.2,55.6,29.78,NNW,340,6.0,10.0,71,0.00,,---,0.01,VWS V14.01,2013-05-05 11:24:00,
2013-05-05 07:27:00,65.2,55.6,29.78,NNW,336,5.0,10.0,71,0.00,,---,0.01,VWS V14.01,2013-05-05 11:27:00,
2013-05-05 07:28:00,65.2,55.6,29.78,NNW,336,5.0,10.0,71,0.00,,---,0.01,VWS V14.01,2013-05-05 11:28:00,
2013-05-05 07:29:00,65.2,55.6,29.78,NW,326,5.0,10.0,71,0.00,,---,0.01,VWS V14.01,2013-05-05 11:29:00,
2013-05-05 07:30:00,65.2,55.6,29.78,NNW,333,7.0,10.0,71,0.00,,---,0.01,VWS V14.01,2013-05-05 11:30:00,
2013-05-05 07:32:00,65.3,55.7,29.78,NNW,333,4.0,10.0,71,0.00,,---,0.01,VWS V14.01,2013-05-05 11:32:00,
2013-05-05 07:35:00,65.3,55.7,29.79,NNW,342,4.0,10.0,71,0.00,,---,0.01,VWS V14.01,2013-05-05 11:35:00,
2013-05-05 07:39:00,65.3,55.7,29.79,NNW,342,4.0,10.0,71,0.00,,---,0.01,VWS V14.01,2013-05-05 11:39:00,
2013-05-05 07:44:00,65.3,55.7,29.79,NNW,339,9.0,10.0,71,0.00,,---,0.01,VWS V14.01,2013-05-05 11:44:00,
2013-05-05 07:47:00,65.6,55.6,29.79,North,7,4.0,10.0,70,0.00,,---,0.01,VWS V14.01,2013-05-05 11:47:00,
2013-05-05 07:50:00,65.6,55.6,29.80,NNW,329,16.0,16.0,70,0.00,,---,0.01,VWS V14.01,2013-05-05 11:50:00,
2013-05-05 07:52:00,65.8,55.8,29.80,NNW,342,8.0,16.0,70,0.00,,---,0.01,VWS V14.01,2013-05-05 11:52:00,
2013-05-05 07:54:00,65.8,55.4,29.80,NNW,333,6.0,16.0,69,0.00,,---,0.01,VWS V14.01,2013-05-05 11:54:00,
2013-05-05 07:55:00,65.8,55.4,29.80,NNW,335,9.0,16.0,69,0.00,,---,0.01,VWS V14.01,2013-05-05 11:55:00,
2013-05-05 07:59:00,66.0,55.5,29.80,NNW,328,8.0,16.0,69,0.00,,---,0.01,VWS V14.01,2013-05-05 11:59:00,
2013-05-05 08:00:00,66.0,55.2,29.80,NNW,342,3.0,16.0,68,0.00,,---,0.01,VWS V14.01,2013-05-05 12:00:00,
2013-05-05 08:06:00,66.1,55.2,29.80,NE,38,6.0,16.0,68,0.00,,---,0.01,VWS V14.01,2013-05-05 12:06:00,
2013-05-05 08:08:00,66.3,55.4,29.80,NNW,327,4.0,16.0,68,0.00,,---,0.01,VWS V14.01,2013-05-05 12:08:00,
2013-05-05 08:10:00,66.3,55.0,29.80,North,354,8.0,16.0,67,0.00,,---,0.01,VWS V14.01,2013-05-05 12:10:00,
2013-05-05 08:12:00,66.3,55.0,29.80,North,354,8.0,16.0,67,0.00,,---,0.01,VWS V14.01,2013-05-05 12:12:00,
2013-05-05 08:14:00,66.1,54.8,29.80,NNW,328,15.0,16.0,67,0.00,,---,0.01,VWS V14.01,2013-05-05 12:14:00,
2013-05-05 08:17:00,66.0,54.7,29.80,NNW,346,6.0,16.0,67,0.00,,---,0.01,VWS V14.01,2013-05-05 12:17:00,
2013-05-05 08:20:00,65.8,54.5,29.80,North,352,9.0,16.0,67,0.00,,---,0.01,VWS V14.01,2013-05-05 12:20:00,
2013-05-05 08:22:00,66.1,55.2,29.80,NNW,345,0.0,16.0,68,0.00,,---,0.01,VWS V14.01,2013-05-05 12:22:00,
2013-05-05 08:24:00,66.1,54.8,29.80,North,356,4.0,16.0,67,0.00,,---,0.01,VWS V14.01,2013-05-05 12:24:00,
2013-05-05 08:26:00,66.3,55.0,29.80,NNW,344,14.0,16.0,67,0.00,,---,0.01,VWS V14.01,2013-05-05 12:26:00,
2013-05-05 08:28:00,66.3,54.2,29.80,North,350,3.0,16.0,65,0.00,,---,0.01,VWS V14.01,2013-05-05 12:28:00,
2013-05-05 08:29:00,66.4,54.3,29.80,North,351,5.0,16.0,65,0.00,,---,0.01,VWS V14.01,2013-05-05 12:29:00,
2013-05-05 08:31:00,66.4,53.9,29.80,NNW,327,2.0,16.0,64,0.00,,---,0.01,VWS V14.01,2013-05-05 12:31:00,
2013-05-05 08:34:00,66.4,53.9,29.81,NNW,338,13.0,16.0,64,0.00,,---,0.01,VWS V14.01,2013-05-05 12:34:00,
2013-05-05 08:37:00,66.4,53.4,29.81,NNW,348,6.0,16.0,63,0.00,,---,0.01,VWS V14.01,2013-05-05 12:37:00,
2013-05-05 08:40:00,66.4,53.4,29.81,NNW,345,4.0,16.0,63,0.00,,---,0.01,VWS V14.01,2013-05-05 12:40:00,
2013-05-05 08:42:00,66.4,53.0,29.81,NNW,342,7.0,16.0,62,0.00,,---,0.01,VWS V14.01,2013-05-05 12:42:00,
2013-05-05 08:43:00,66.4,53.0,29.81,NNW,333,2.0,16.0,62,0.00,,---,0.01,VWS V14.01,2013-05-05 12:43:00,
2013-05-05 08:46:00,66.6,53.2,29.81,NNW,337,3.0,16.0,62,0.00,,---,0.01,VWS V14.01,2013-05-05 12:46:00,
2013-05-05 08:47:00,66.8,52.9,29.81,North,358,5.0,16.0,61,0.00,,---,0.01,VWS V14.01,2013-05-05 12:47:00,
2013-05-05 08:50:00,66.9,52.6,29.82,NNW,330,5.0,16.0,60,0.00,,---,0.01,VWS V14.01,2013-05-05 12:50:00,
2013-05-05 08:52:00,66.9,52.6,29.82,NNW,345,13.0,16.0,60,0.00,,---,0.01,VWS V14.01,2013-05-05 12:52:00,
2013-05-05 08:53:00,66.9,52.6,29.82,NNW,345,13.0,16.0,60,0.00,,---,0.01,VWS V14.01,2013-05-05 12:53:00,
2013-05-05 08:57:00,67.4,52.6,29.82,NNW,328,5.0,16.0,59,0.00,,---,0.01,VWS V14.01,2013-05-05 12:57:00,
2013-05-05 08:58:00,67.4,52.1,29.82,NNW,343,5.0,16.0,58,0.00,,---,0.01,VWS V14.01,2013-05-05 12:58:00,
2013-05-05 09:00:00,67.6,52.3,29.82,NNW,333,2.0,16.0,58,0.00,,---,0.01,VWS V14.01,2013-05-05 13:00:00,
2013-05-05 09:01:00,67.6,51.8,29.82,NNW,343,2.0,16.0,57,0.00,,---,0.01,VWS V14.01,2013-05-05 13:01:00,
2013-05-05 09:02:00,67.6,51.8,29.82,NNW,343,2.0,16.0,57,0.00,,---,0.01,VWS V14.01,2013-05-05 13:02:00,
2013-05-05 09:08:00,67.6,51.8,29.82,NNW,340,9.0,16.0,57,0.00,,---,0.01,VWS V14.01,2013-05-05 13:08:00,
2013-05-05 09:10:00,68.1,52.3,29.82,NNW,328,8.0,16.0,57,0.00,,---,0.01,VWS V14.01,2013-05-05 13:10:00,
2013-05-05 09:12:00,68.1,51.8,29.82,WNW,290,14.0,16.0,56,0.00,,---,0.01,VWS V14.01,2013-05-05 13:12:00,
2013-05-05 09:15:00,68.1,52.3,29.82,NNW,339,14.0,16.0,57,0.00,,---,0.01,VWS V14.01,2013-05-05 13:15:00,
2013-05-05 09:18:00,68.3,51.5,29.82,North,358,5.0,16.0,55,0.00,,---,0.01,VWS V14.01,2013-05-05 13:18:00,
2013-05-05 09:20:00,68.3,51.5,29.82,North,358,5.0,16.0,55,0.00,,---,0.01,VWS V14.01,2013-05-05 13:20:00,
2013-05-05 09:23:00,68.4,51.6,29.82,NE,34,7.0,16.0,55,0.00,,---,0.01,VWS V14.01,2013-05-05 13:23:00,
2013-05-05 09:25:00,68.6,51.3,29.82,NW,315,6.0,16.0,54,0.00,,---,0.01,VWS V14.01,2013-05-05 13:25:00,
2013-05-05 09:34:00,68.8,52.5,29.82,NNW,332,2.0,16.0,56,0.00,,---,0.01,VWS V14.01,2013-05-05 13:34:00,
2013-05-05 09:35:00,68.9,52.6,29.82,NNW,332,2.0,16.0,56,0.00,,---,0.01,VWS V14.01,2013-05-05 13:35:00,
2013-05-05 09:36:00,68.9,51.6,29.82,WNW,295,5.0,16.0,54,0.00,,---,0.01,VWS V14.01,2013-05-05 13:36:00,
2013-05-05 09:37:00,68.9,51.6,29.82,WSW,242,6.0,16.0,54,0.00,,---,0.01,VWS V14.01,2013-05-05 13:37:00,
2013-05-05 09:41:00,69.1,52.8,29.82,NNW,331,7.0,16.0,56,0.00,,---,0.01,VWS V14.01,2013-05-05 13:41:00,
2013-05-05 09:43:00,69.1,52.8,29.82,NNW,331,7.0,16.0,56,0.00,,---,0.01,VWS V14.01,2013-05-05 13:43:00,
2013-05-05 09:47:00,69.4,52.0,29.82,NNW,338,2.0,16.0,54,0.00,,---,0.01,VWS V14.01,2013-05-05 13:47:00,
2013-05-05 09:49:00,69.6,51.7,29.82,NW,325,4.0,16.0,53,0.00,,---,0.01,VWS V14.01,2013-05-05 13:49:00,
2013-05-05 09:57:00,70.4,52.5,29.83,North,358,6.0,16.0,53,0.00,,---,0.01,VWS V14.01,2013-05-05 13:57:00,
2013-05-05 09:58:00,70.4,52.5,29.83,North,0,15.0,16.0,53,0.00,,---,0.01,VWS V14.01,2013-05-05 13:58:00,
2013-05-05 10:00:00,70.8,52.3,29.83,North,0,8.0,16.0,52,0.00,,---,0.01,VWS V14.01,2013-05-05 14:00:00,
2013-05-05 10:02:00,70.6,51.6,29.83,NNW,334,1.0,16.0,51,0.00,,---,0.01,VWS V14.01,2013-05-05 14:02:00,
2013-05-05 10:06:00,70.6,51.6,29.84,NNW,346,6.0,16.0,51,0.00,,---,0.01,VWS V14.01,2013-05-05 14:06:00,
2013-05-05 10:09:00,70.6,51.6,29.84,North,0,9.0,16.0,51,0.00,,---,0.01,VWS V14.01,2013-05-05 14:09:00,
2013-05-05 10:10:00,70.3,51.9,29.84,NNW,333,11.0,16.0,52,0.00,,---,0.01,VWS V14.01,2013-05-05 14:10:00,
2013-05-05 10:11:00,70.3,51.9,29.84,NNW,333,11.0,16.0,52,0.00,,---,0.01,VWS V14.01,2013-05-05 14:11:00,
2013-05-05 10:12:00,70.4,52.5,29.84,NNW,342,5.0,16.0,53,0.00,,---,0.01,VWS V14.01,2013-05-05 14:12:00,
2013-05-05 10:15:00,70.8,52.8,29.84,NNW,328,5.0,16.0,53,0.00,,---,0.01,VWS V14.01,2013-05-05 14:15:00,
2013-05-05 10:19:00,70.9,51.3,29.84,North,0,7.0,16.0,50,0.00,,---,0.01,VWS V14.01,2013-05-05 14:19:00,
2013-05-05 10:20:00,70.9,51.3,29.84,NW,326,7.0,16.0,50,0.00,,---,0.01,VWS V14.01,2013-05-05 14:20:00,
2013-05-05 10:22:00,70.9,51.3,29.84,NNW,341,6.0,16.0,50,0.00,,---,0.01,VWS V14.01,2013-05-05 14:22:00,
2013-05-05 10:24:00,71.1,51.0,29.84,NW,326,14.0,16.0,49,0.00,,---,0.01,VWS V14.01,2013-05-05 14:24:00,
2013-05-05 10:31:00,71.1,51.0,29.84,NNW,340,3.0,16.0,49,0.00,,---,0.01,VWS V14.01,2013-05-05 14:31:00,
2013-05-05 10:35:00,71.3,50.6,29.84,NNW,348,11.0,16.0,48,0.00,,---,0.01,VWS V14.01,2013-05-05 14:35:00,
2013-05-05 10:36:00,71.3,50.6,29.84,North,356,10.0,16.0,48,0.00,,---,0.01,VWS V14.01,2013-05-05 14:36:00,
2013-05-05 10:37:00,71.3,51.2,29.84,NW,319,7.0,16.0,49,0.00,,---,0.01,VWS V14.01,2013-05-05 14:37:00,
2013-05-05 10:40:00,71.3,51.2,29.84,North,356,13.0,16.0,49,0.00,,---,0.01,VWS V14.01,2013-05-05 14:40:00,
2013-05-05 10:43:00,71.3,50.6,29.84,NNW,348,8.0,16.0,48,0.00,,---,0.01,VWS V14.01,2013-05-05 14:43:00,
2013-05-05 10:44:00,71.3,51.2,29.84,NNW,338,8.0,16.0,49,0.00,,---,0.01,VWS V14.01,2013-05-05 14:44:00,
2013-05-05 10:46:00,71.3,51.2,29.84,NNW,338,8.0,16.0,49,0.00,,---,0.01,VWS V14.01,2013-05-05 14:46:00,
2013-05-05 10:49:00,71.5,51.4,29.84,NW,311,5.0,16.0,49,0.00,,---,0.01,VWS V14.01,2013-05-05 14:49:00,
2013-05-05 10:50:00,71.5,51.4,29.85,NNW,329,6.0,16.0,49,0.00,,---,0.01,VWS V14.01,2013-05-05 14:50:00,
2013-05-05 10:51:00,71.5,51.4,29.85,NNW,337,2.0,16.0,49,0.00,,---,0.01,VWS V14.01,2013-05-05 14:51:00,
2013-05-05 10:54:00,71.5,50.8,29.85,NNW,340,12.0,16.0,48,0.00,,---,0.01,VWS V14.01,2013-05-05 14:54:00,
2013-05-05 10:55:00,71.5,50.8,29.85,NNW,327,5.0,16.0,48,0.00,,---,0.01,VWS V14.01,2013-05-05 14:55:00,
2013-05-05 10:57:00,71.5,50.8,29.85,North,357,12.0,16.0,48,0.00,,---,0.01,VWS V14.01,2013-05-05 14:57:00,
2013-05-05 11:00:00,71.6,50.9,29.85,NNE,18,9.0,16.0,48,0.00,,---,0.01,VWS V14.01,2013-05-05 15:00:00,
2013-05-05 11:04:00,71.6,52.0,29.85,NW,315,5.0,16.0,50,0.00,,---,0.01,VWS V14.01,2013-05-05 15:04:00,
2013-05-05 11:05:00,72.3,52.1,29.85,NNW,345,14.0,14.0,49,0.00,,---,0.01,VWS V14.01,2013-05-05 15:05:00,
2013-05-05 11:06:00,72.3,52.1,29.85,NNW,345,14.0,14.0,49,0.00,,---,0.01,VWS V14.01,2013-05-05 15:06:00,
2013-05-05 11:10:00,72.7,54.1,29.85,North,349,11.0,14.0,52,0.00,,---,0.01,VWS V14.01,2013-05-05 15:10:00,
2013-05-05 11:12:00,72.5,51.2,29.85,NNW,338,10.0,14.0,47,0.00,,---,0.01,VWS V14.01,2013-05-05 15:12:00,
2013-05-05 11:13:00,72.5,50.6,29.85,North,353,4.0,14.0,46,0.00,,---,0.01,VWS V14.01,2013-05-05 15:13:00,
2013-05-05 11:15:00,72.5,50.6,29.85,North,0,13.0,14.0,46,0.00,,---,0.01,VWS V14.01,2013-05-05 15:15:00,
2013-05-05 11:17:00,72.5,50.6,29.85,NNW,346,8.0,14.0,46,0.00,,---,0.01,VWS V14.01,2013-05-05 15:17:00,
2013-05-05 11:19:00,72.5,50.6,29.85,NNW,342,13.0,14.0,46,0.00,,---,0.01,VWS V14.01,2013-05-05 15:19:00,
2013-05-05 11:24:00,72.5,50.6,29.85,NNW,343,8.0,14.0,46,0.00,,---,0.01,VWS V14.01,2013-05-05 15:24:00,
2013-05-05 11:25:00,72.7,50.8,29.85,NNW,343,9.0,14.0,46,0.00,,---,0.01,VWS V14.01,2013-05-05 15:25:00,
2013-05-05 11:29:00,73.2,51.8,29.85,NNW,342,19.0,19.0,47,0.00,,---,0.01,VWS V14.01,2013-05-05 15:29:00,
2013-05-05 11:30:00,73.2,51.8,29.85,North,359,8.0,19.0,47,0.00,,---,0.01,VWS V14.01,2013-05-05 15:30:00,
2013-05-05 11:33:00,73.0,51.6,29.85,North,349,4.0,19.0,47,0.00,,---,0.01,VWS V14.01,2013-05-05 15:33:00,
2013-05-05 11:34:00,73.0,52.2,29.85,NNW,336,6.0,19.0,48,0.00,,---,0.01,VWS V14.01,2013-05-05 15:34:00,
2013-05-05 11:36:00,73.0,52.2,29.85,NNW,340,6.0,19.0,48,0.00,,---,0.01,VWS V14.01,2013-05-05 15:36:00,
2013-05-05 11:39:00,73.5,52.6,29.85,North,351,7.0,19.0,48,0.00,,---,0.01,VWS V14.01,2013-05-05 15:39:00,
2013-05-05 11:40:00,73.5,52.6,29.85,NW,319,10.0,19.0,48,0.00,,---,0.01,VWS V14.01,2013-05-05 15:40:00,
2013-05-05 11:41:00,73.7,51.7,29.85,NNW,341,5.0,19.0,46,0.00,,---,0.01,VWS V14.01,2013-05-05 15:41:00,
2013-05-05 11:45:00,73.9,52.4,29.85,North,358,9.0,19.0,47,0.00,,---,0.01,VWS V14.01,2013-05-05 15:45:00,
2013-05-05 11:46:00,74.0,52.5,29.85,NNW,329,10.0,19.0,47,0.00,,---,0.01,VWS V14.01,2013-05-05 15:46:00,
2013-05-05 11:48:00,74.2,50.9,29.85,North,349,10.0,19.0,44,0.00,,---,0.01,VWS V14.01,2013-05-05 15:48:00,
2013-05-05 11:49:00,74.2,52.1,29.85,NW,308,4.0,19.0,46,0.00,,---,0.01,VWS V14.01,2013-05-05 15:49:00,
2013-05-05 11:52:00,73.9,50.6,29.85,NNW,347,14.0,19.0,44,0.00,,---,0.01,VWS V14.01,2013-05-05 15:52:00,
2013-05-05 11:56:00,73.5,50.9,29.85,NW,311,13.0,19.0,45,0.00,,---,0.01,VWS V14.01,2013-05-05 15:56:00,
2013-05-05 11:59:00,73.3,50.1,29.85,North,355,3.0,19.0,44,0.00,,---,0.01,VWS V14.01,2013-05-05 15:59:00,
2013-05-05 12:00:00,73.5,50.9,29.85,NNW,339,2.0,19.0,45,0.00,,---,0.01,VWS V14.01,2013-05-05 16:00:00,
2013-05-05 12:05:00,73.5,51.5,29.85,NNW,343,4.0,19.0,46,0.00,,---,0.01,VWS V14.01,2013-05-05 16:05:00,
2013-05-05 12:06:00,73.5,50.3,29.85,NW,311,1.0,4.0,44,0.00,,---,0.01,VWS V14.01,2013-05-05 16:06:00,
2013-05-05 12:10:00,73.7,51.1,29.85,North,11,5.0,7.0,45,0.00,,---,0.01,VWS V14.01,2013-05-05 16:10:00,
2013-05-05 12:11:00,73.7,51.1,29.85,North,11,5.0,7.0,45,0.00,,---,0.01,VWS V14.01,2013-05-05 16:11:00,
2013-05-05 12:13:00,73.9,51.2,29.85,NNW,339,6.0,8.0,45,0.00,,---,0.01,VWS V14.01,2013-05-05 16:13:00,
2013-05-05 12:16:00,73.7,51.1,29.85,NNE,33,10.0,13.0,45,0.00,,---,0.01,VWS V14.01,2013-05-05 16:16:00,
2013-05-05 12:19:00,73.3,50.7,29.84,North,0,10.0,16.0,45,0.00,,---,0.01,VWS V14.01,2013-05-05 16:19:00,
2013-05-05 12:20:00,73.3,51.3,29.84,NW,326,4.0,16.0,46,0.00,,---,0.01,VWS V14.01,2013-05-05 16:20:00,
2013-05-05 12:26:00,73.9,51.2,29.84,North,357,23.0,23.0,45,0.00,,---,0.01,VWS V14.01,2013-05-05 16:26:00,
2013-05-05 12:27:00,73.7,50.5,29.84,North,1,20.0,23.0,44,0.00,,---,0.01,VWS V14.01,2013-05-05 16:27:00,
2013-05-05 12:28:00,73.3,50.7,29.84,NW,307,4.0,23.0,45,0.00,,---,0.01,VWS V14.01,2013-05-05 16:28:00,
2013-05-05 12:29:00,73.3,51.3,29.84,North,0,7.0,23.0,46,0.00,,---,0.01,VWS V14.01,2013-05-05 16:29:00,
2013-05-05 12:37:00,73.5,50.9,29.84,North,358,4.0,23.0,45,0.00,,---,0.01,VWS V14.01,2013-05-05 16:37:00,
2013-05-05 12:38:00,74.4,51.1,29.84,North,358,8.0,23.0,44,0.00,,---,0.01,VWS V14.01,2013-05-05 16:38:00,
2013-05-05 12:41:00,74.4,50.5,29.84,NNW,335,14.0,23.0,43,0.00,,---,0.01,VWS V14.01,2013-05-05 16:41:00,
2013-05-05 12:44:00,74.2,49.7,29.84,NNW,327,13.0,23.0,42,0.00,,---,0.01,VWS V14.01,2013-05-05 16:44:00,
2013-05-05 12:47:00,74.2,49.7,29.84,North,354,7.0,23.0,42,0.00,,---,0.01,VWS V14.01,2013-05-05 16:47:00,
2013-05-05 12:48:00,74.0,49.5,29.84,NNW,334,5.0,23.0,42,0.00,,---,0.01,VWS V14.01,2013-05-05 16:48:00,
2013-05-05 12:49:00,74.0,49.5,29.84,NW,318,8.0,23.0,42,0.00,,---,0.01,VWS V14.01,2013-05-05 16:49:00,
2013-05-05 12:53:00,74.0,50.1,29.84,NNW,342,6.0,23.0,43,0.00,,---,0.01,VWS V14.01,2013-05-05 16:53:00,
2013-05-05 12:56:00,74.6,51.9,29.84,North,3,6.0,23.0,45,0.00,,---,0.01,VWS V14.01,2013-05-05 16:56:00,
2013-05-05 12:59:00,74.6,50.7,29.84,North,354,9.0,23.0,43,0.00,,---,0.01,VWS V14.01,2013-05-05 16:59:00,
2013-05-05 13:01:00,74.6,50.7,29.84,NNW,348,10.0,23.0,43,0.00,,---,0.01,VWS V14.01,2013-05-05 17:01:00,
2013-05-05 13:04:00,74.6,51.3,29.84,North,9,15.0,23.0,44,0.00,,---,0.01,VWS V14.01,2013-05-05 17:04:00,
2013-05-05 13:05:00,74.2,50.3,29.84,NNW,342,6.0,23.0,43,0.00,,---,0.01,VWS V14.01,2013-05-05 17:05:00,
2013-05-05 13:07:00,74.2,50.3,29.84,NE,34,6.0,6.0,43,0.00,,---,0.01,VWS V14.01,2013-05-05 17:07:00,
2013-05-05 13:09:00,74.4,50.5,29.84,WSW,256,1.0,6.0,43,0.00,,---,0.01,VWS V14.01,2013-05-05 17:09:00,
2013-05-05 13:12:00,74.6,51.3,29.84,North,358,12.0,12.0,44,0.00,,---,0.01,VWS V14.01,2013-05-05 17:12:00,
2013-05-05 13:13:00,74.9,49.6,29.84,NNW,341,3.0,12.0,41,0.00,,---,0.01,VWS V14.01,2013-05-05 17:13:00,
2013-05-05 13:14:00,74.9,49.6,29.84,NNW,333,7.0,12.0,41,0.00,,---,0.01,VWS V14.01,2013-05-05 17:14:00,
2013-05-05 13:15:00,75.3,50.0,29.84,NNW,345,4.0,12.0,41,0.00,,---,0.01,VWS V14.01,2013-05-05 17:15:00,
2013-05-05 13:20:00,75.6,50.3,29.84,NE,40,5.0,12.0,41,0.00,,---,0.01,VWS V14.01,2013-05-05 17:20:00,
2013-05-05 13:21:00,75.6,50.3,29.84,NE,40,5.0,12.0,41,0.00,,---,0.01,VWS V14.01,2013-05-05 17:21:00,
2013-05-05 13:22:00,75.6,50.3,29.84,North,5,12.0,12.0,41,0.00,,---,0.01,VWS V14.01,2013-05-05 17:22:00,
2013-05-05 13:24:00,75.1,49.8,29.84,North,352,8.0,12.0,41,0.00,,---,0.01,VWS V14.01,2013-05-05 17:24:00,
2013-05-05 13:26:00,74.9,49.6,29.84,NW,326,14.0,14.0,41,0.00,,---,0.01,VWS V14.01,2013-05-05 17:26:00,
2013-05-05 13:27:00,74.9,50.3,29.84,North,358,15.0,15.0,42,0.00,,---,0.01,VWS V14.01,2013-05-05 17:27:00,
2013-05-05 13:33:00,74.7,49.5,29.84,North,349,14.0,15.0,41,0.00,,---,0.01,VWS V14.01,2013-05-05 17:33:00,
2013-05-05 13:34:00,74.6,50.7,29.83,North,349,12.0,15.0,43,0.00,,---,0.01,VWS V14.01,2013-05-05 17:34:00,
2013-05-05 13:35:00,74.6,50.0,29.83,NNW,329,10.0,15.0,42,0.00,,---,0.01,VWS V14.01,2013-05-05 17:35:00,
2013-05-05 13:36:00,74.6,50.0,29.83,NNW,334,14.0,15.0,42,0.00,,---,0.01,VWS V14.01,2013-05-05 17:36:00,
2013-05-05 13:41:00,75.1,50.5,29.83,NNW,328,7.0,15.0,42,0.00,,---,0.01,VWS V14.01,2013-05-05 17:41:00,
2013-05-05 13:43:00,75.1,49.8,29.83,NNW,335,1.0,15.0,41,0.00,,---,0.01,VWS V14.01,2013-05-05 17:43:00,
2013-05-05 13:44:00,75.3,51.3,29.83,WNW,295,0.0,15.0,43,0.00,,---,0.01,VWS V14.01,2013-05-05 17:44:00,
2013-05-05 13:47:00,75.4,50.7,29.83,North,0,9.0,15.0,42,0.00,,---,0.01,VWS V14.01,2013-05-05 17:47:00,
2013-05-05 13:48:00,75.4,52.0,29.83,NNW,328,4.0,15.0,44,0.00,,---,0.01,VWS V14.01,2013-05-05 17:48:00,
2013-05-05 13:49:00,75.6,50.3,29.83,North,349,18.0,18.0,41,0.00,,---,0.01,VWS V14.01,2013-05-05 17:49:00,
2013-05-05 13:50:00,75.6,50.3,29.83,NNW,347,7.0,18.0,41,0.00,,---,0.01,VWS V14.01,2013-05-05 17:50:00,
2013-05-05 13:51:00,75.6,50.3,29.83,NNW,347,7.0,18.0,41,0.00,,---,0.01,VWS V14.01,2013-05-05 17:51:00,
2013-05-05 13:56:00,75.4,50.7,29.83,NNW,336,6.0,18.0,42,0.00,,---,0.01,VWS V14.01,2013-05-05 17:56:00,
2013-05-05 13:57:00,75.6,51.5,29.83,NW,326,5.0,18.0,43,0.00,,---,0.01,VWS V14.01,2013-05-05 17:57:00,
2013-05-05 14:00:00,76.0,51.9,29.83,NNW,342,9.0,18.0,43,0.00,,---,0.01,VWS V14.01,2013-05-05 18:00:00,
2013-05-05 14:01:00,76.0,51.3,29.83,North,358,9.0,18.0,42,0.00,,---,0.01,VWS V14.01,2013-05-05 18:01:00,
2013-05-05 14:03:00,76.1,52.6,29.83,NNW,345,1.0,18.0,44,0.00,,---,0.01,VWS V14.01,2013-05-05 18:03:00,
2013-05-05 14:07:00,76.5,53.0,29.84,NNW,328,4.0,18.0,44,0.00,,---,0.01,VWS V14.01,2013-05-05 18:07:00,
2013-05-05 14:09:00,76.3,50.2,29.84,WSW,237,7.0,9.0,40,0.00,,---,0.01,VWS V14.01,2013-05-05 18:09:00,
2013-05-05 14:12:00,76.3,50.2,29.84,North,350,5.0,9.0,40,0.00,,---,0.01,VWS V14.01,2013-05-05 18:12:00,
2013-05-05 14:13:00,76.3,51.5,29.84,NNW,347,8.0,10.0,42,0.00,,---,0.01,VWS V14.01,2013-05-05 18:13:00,
2013-05-05 14:17:00,76.3,48.1,29.84,North,358,7.0,19.0,37,0.00,,---,0.01,VWS V14.01,2013-05-05 18:17:00,
2013-05-05 14:18:00,76.3,49.5,29.83,North,356,0.0,19.0,39,0.00,,---,0.01,VWS V14.01,2013-05-05 18:18:00,
2013-05-05 14:21:00,76.7,50.6,29.83,WNW,290,5.0,19.0,40,0.00,,---,0.01,VWS V14.01,2013-05-05 18:21:00,
2013-05-05 14:23:00,76.7,50.6,29.83,WNW,290,0.0,19.0,40,0.00,,---,0.01,VWS V14.01,2013-05-05 18:23:00,
2013-05-05 14:24:00,76.7,50.6,29.83,North,358,0.0,19.0,40,0.00,,---,0.01,VWS V14.01,2013-05-05 18:24:00,
2013-05-05 14:27:00,76.8,50.7,29.83,WNW,295,6.0,19.0,40,0.00,,---,0.01,VWS V14.01,2013-05-05 18:27:00,
2013-05-05 14:31:00,76.8,50.0,29.83,NW,324,7.0,19.0,39,0.00,,---,0.01,VWS V14.01,2013-05-05 18:31:00,
2013-05-05 14:33:00,76.8,50.0,29.83,NNW,331,9.0,19.0,39,0.00,,---,0.01,VWS V14.01,2013-05-05 18:33:00,
2013-05-05 14:35:00,76.8,48.6,29.83,NNW,336,8.0,19.0,37,0.00,,---,0.01,VWS V14.01,2013-05-05 18:35:00,
2013-05-05 14:39:00,77.0,50.2,29.83,WNW,300,2.0,19.0,39,0.00,,---,0.01,VWS V14.01,2013-05-05 18:39:00,
2013-05-05 14:41:00,77.2,50.3,29.83,North,352,8.0,19.0,39,0.00,,---,0.01,VWS V14.01,2013-05-05 18:41:00,
2013-05-05 14:47:00,77.7,50.8,29.83,NNW,334,2.0,19.0,39,0.00,,---,0.01,VWS V14.01,2013-05-05 18:47:00,
2013-05-05 14:48:00,77.7,50.8,29.83,North,354,2.0,19.0,39,0.00,,---,0.01,VWS V14.01,2013-05-05 18:48:00,
2013-05-05 14:53:00,77.7,49.4,29.83,North,351,14.0,19.0,37,0.00,,---,0.01,VWS V14.01,2013-05-05 18:53:00,
2013-05-05 14:54:00,77.4,49.1,29.83,NNE,18,6.0,19.0,37,0.00,,---,0.01,VWS V14.01,2013-05-05 18:54:00,
2013-05-05 14:56:00,77.2,49.7,29.83,NNW,344,9.0,19.0,38,0.00,,---,0.01,VWS V14.01,2013-05-05 18:56:00,
2013-05-05 14:57:00,77.4,50.5,29.83,NNW,332,6.0,19.0,39,0.00,,---,0.01,VWS V14.01,2013-05-05 18:57:00,
2013-05-05 14:58:00,77.4,50.5,29.83,NNW,332,0.0,19.0,39,0.00,,---,0.01,VWS V14.01,2013-05-05 18:58:00,
2013-05-05 15:02:00,77.7,50.8,29.83,North,358,6.0,19.0,39,0.00,,---,0.01,VWS V14.01,2013-05-05 19:02:00,
2013-05-05 15:06:00,77.9,52.3,29.83,North,358,2.0,19.0,41,0.00,,---,0.01,VWS V14.01,2013-05-05 19:06:00,
2013-05-05 15:09:00,78.1,52.5,29.83,NNW,340,1.0,2.0,41,0.00,,---,0.01,VWS V14.01,2013-05-05 19:09:00,
2013-05-05 15:12:00,77.7,52.2,29.83,NNW,327,6.0,7.0,41,0.00,,---,0.01,VWS V14.01,2013-05-05 19:12:00,
2013-05-05 15:14:00,77.6,52.1,29.83,NNW,330,5.0,7.0,41,0.00,,---,0.01,VWS V14.01,2013-05-05 19:14:00,
2013-05-05 15:15:00,77.6,52.1,29.83,NNW,340,6.0,7.0,41,0.00,,---,0.01,VWS V14.01,2013-05-05 19:15:00,
2013-05-05 15:16:00,77.6,52.7,29.83,NNW,340,1.0,7.0,42,0.00,,---,0.01,VWS V14.01,2013-05-05 19:16:00,
2013-05-05 15:20:00,77.6,52.7,29.83,NW,304,1.0,7.0,42,0.00,,---,0.01,VWS V14.01,2013-05-05 19:20:00,
2013-05-05 15:21:00,77.6,54.0,29.83,WNW,292,6.0,7.0,44,0.00,,---,0.01,VWS V14.01,2013-05-05 19:21:00,
2013-05-05 15:26:00,77.9,53.6,29.83,NW,312,10.0,10.0,43,0.00,,---,0.01,VWS V14.01,2013-05-05 19:26:00,
2013-05-05 15:27:00,77.9,53.0,29.83,WNW,282,1.0,10.0,42,0.00,,---,0.01,VWS V14.01,2013-05-05 19:27:00,
2013-05-05 15:29:00,77.9,53.6,29.83,NNW,338,6.0,10.0,43,0.00,,---,0.01,VWS V14.01,2013-05-05 19:29:00,
2013-05-05 15:37:00,76.5,54.2,29.82,North,352,6.0,10.0,46,0.00,,---,0.01,VWS V14.01,2013-05-05 19:37:00,
2013-05-05 15:38:00,76.5,54.2,29.82,North,352,6.0,10.0,46,0.00,,---,0.01,VWS V14.01,2013-05-05 19:38:00,
2013-05-05 15:39:00,76.3,53.4,29.82,NNW,330,2.0,10.0,45,0.00,,---,0.01,VWS V14.01,2013-05-05 19:39:00,
2013-05-05 15:45:00,75.8,52.4,29.82,NNW,331,5.0,10.0,44,0.00,,---,0.01,VWS V14.01,2013-05-05 19:45:00,
2013-05-05 15:48:00,75.6,53.4,29.82,NNW,347,2.0,10.0,46,0.00,,---,0.01,VWS V14.01,2013-05-05 19:48:00,
2013-05-05 15:50:00,75.8,53.6,29.82,NW,311,4.0,10.0,46,0.00,,---,0.01,VWS V14.01,2013-05-05 19:50:00,
2013-05-05 15:51:00,75.8,53.0,29.82,WNW,294,8.0,13.0,45,0.00,,---,0.01,VWS V14.01,2013-05-05 19:51:00,
2013-05-05 15:58:00,75.6,53.4,29.82,North,0,4.0,13.0,46,0.00,,---,0.01,VWS V14.01,2013-05-05 19:58:00,
2013-05-05 15:59:00,75.8,53.0,29.82,NW,326,5.0,13.0,45,0.00,,---,0.01,VWS V14.01,2013-05-05 19:59:00,
2013-05-05 16:00:00,75.8,53.0,29.82,North,349,5.0,13.0,45,0.00,,---,0.01,VWS V14.01,2013-05-05 20:00:00,
2013-05-05 16:04:00,75.8,53.6,29.82,NNW,328,6.0,13.0,46,0.00,,---,0.01,VWS V14.01,2013-05-05 20:04:00,
2013-05-05 16:06:00,75.4,52.6,29.82,NW,312,7.0,7.0,45,0.00,,---,0.01,VWS V14.01,2013-05-05 20:06:00,
2013-05-05 16:08:00,75.3,51.9,29.82,SW,235,0.0,7.0,44,0.00,,---,0.01,VWS V14.01,2013-05-05 20:08:00,
2013-05-05 16:12:00,75.3,52.5,29.82,North,5,9.0,9.0,45,0.00,,---,0.01,VWS V14.01,2013-05-05 20:12:00,
2013-05-05 16:14:00,75.3,52.5,29.82,NW,317,6.0,9.0,45,0.00,,---,0.01,VWS V14.01,2013-05-05 20:14:00,
2013-05-05 16:15:00,75.4,52.0,29.82,NNW,337,5.0,9.0,44,0.00,,---,0.01,VWS V14.01,2013-05-05 20:15:00,
2013-05-05 16:18:00,75.4,52.0,29.82,NNW,337,5.0,9.0,44,0.00,,---,0.01,VWS V14.01,2013-05-05 20:18:00,
2013-05-05 16:19:00,75.4,52.6,29.82,NW,326,4.0,9.0,45,0.00,,---,0.01,VWS V14.01,2013-05-05 20:19:00,
2013-05-05 16:20:00,75.6,52.8,29.82,West,276,8.0,10.0,45,0.00,,---,0.01,VWS V14.01,2013-05-05 20:20:00,
2013-05-05 16:28:00,75.6,52.2,29.82,NNW,331,1.0,10.0,44,0.00,,---,0.01,VWS V14.01,2013-05-05 20:28:00,
2013-05-05 16:34:00,75.4,53.2,29.82,North,353,8.0,10.0,46,0.00,,---,0.01,VWS V14.01,2013-05-05 20:34:00,
2013-05-05 16:38:00,75.3,52.5,29.82,WNW,290,0.0,10.0,45,0.00,,---,0.01,VWS V14.01,2013-05-05 20:38:00,
2013-05-05 16:40:00,75.6,53.4,29.82,WNW,292,2.0,10.0,46,0.00,,---,0.01,VWS V14.01,2013-05-05 20:40:00,
2013-05-05 16:42:00,75.6,53.4,29.82,WNW,292,2.0,10.0,46,0.00,,---,0.01,VWS V14.01,2013-05-05 20:42:00,
2013-05-05 16:46:00,76.0,53.2,29.82,NW,323,0.0,10.0,45,0.00,,---,0.01,VWS V14.01,2013-05-05 20:46:00,
2013-05-05 16:50:00,76.0,52.5,29.82,West,276,3.0,10.0,44,0.00,,---,0.01,VWS V14.01,2013-05-05 20:50:00,
2013-05-05 16:52:00,75.8,51.7,29.82,West,263,2.0,10.0,43,0.00,,---,0.01,VWS V14.01,2013-05-05 20:52:00,
2013-05-05 16:53:00,75.6,52.2,29.82,North,0,11.0,11.0,44,0.00,,---,0.01,VWS V14.01,2013-05-05 20:53:00,
2013-05-05 16:55:00,75.6,52.2,29.82,NNW,342,5.0,11.0,44,0.00,,---,0.01,VWS V14.01,2013-05-05 20:55:00,
2013-05-05 16:56:00,75.4,52.6,29.82,North,354,2.0,11.0,45,0.00,,---,0.01,VWS V14.01,2013-05-05 20:56:00,
2013-05-05 16:59:00,75.4,52.6,29.82,NW,325,0.0,11.0,45,0.00,,---,0.01,VWS V14.01,2013-05-05 20:59:00,
2013-05-05 17:03:00,74.7,51.4,29.82,North,349,5.0,12.0,44,0.00,,---,0.01,VWS V14.01,2013-05-05 21:03:00,
2013-05-05 17:04:00,74.7,51.4,29.82,NNW,335,9.0,12.0,44,0.00,,---,0.01,VWS V14.01,2013-05-05 21:04:00,
2013-05-05 17:05:00,74.6,52.5,29.82,NW,323,5.0,5.0,46,0.00,,---,0.01,VWS V14.01,2013-05-05 21:05:00,
2013-05-05 17:09:00,74.6,53.1,29.82,West,262,6.0,6.0,47,0.00,,---,0.01,VWS V14.01,2013-05-05 21:09:00,
2013-05-05 17:10:00,74.7,52.6,29.82,WNW,302,3.0,6.0,46,0.00,,---,0.01,VWS V14.01,2013-05-05 21:10:00,
2013-05-05 17:12:00,74.7,52.6,29.82,WNW,300,0.0,6.0,46,0.00,,---,0.01,VWS V14.01,2013-05-05 21:12:00,
2013-05-05 17:15:00,74.9,52.8,29.82,NW,316,6.0,6.0,46,0.00,,---,0.01,VWS V14.01,2013-05-05 21:15:00,
2013-05-05 17:16:00,74.9,52.8,29.82,NW,316,6.0,6.0,46,0.00,,---,0.01,VWS V14.01,2013-05-05 21:16:00,
2013-05-05 17:17:00,74.9,52.8,29.82,North,358,7.0,7.0,46,0.00,,---,0.01,VWS V14.01,2013-05-05 21:17:00,
2013-05-05 17:22:00,75.1,52.9,29.83,WNW,300,4.0,7.0,46,0.00,,---,0.01,VWS V14.01,2013-05-05 21:22:00,
2013-05-05 17:23:00,74.7,52.0,29.83,NNW,343,1.0,8.0,45,0.00,,---,0.01,VWS V14.01,2013-05-05 21:23:00,
2013-05-05 17:27:00,74.9,52.8,29.83,NNW,348,6.0,8.0,46,0.00,,---,0.01,VWS V14.01,2013-05-05 21:27:00,
2013-05-05 17:28:00,74.9,52.8,29.83,NNW,333,0.0,8.0,46,0.00,,---,0.01,VWS V14.01,2013-05-05 21:28:00,
2013-05-05 17:29:00,74.9,52.8,29.83,NNW,333,0.0,8.0,46,0.00,,---,0.01,VWS V14.01,2013-05-05 21:29:00,
2013-05-05 17:33:00,74.7,52.0,29.83,WNW,284,1.0,8.0,45,0.00,,---,0.01,VWS V14.01,2013-05-05 21:33:00,
2013-05-05 17:34:00,74.7,52.6,29.83,WNW,302,1.0,8.0,46,0.00,,---,0.01,VWS V14.01,2013-05-05 21:34:00,
2013-05-05 17:35:00,74.6,52.5,29.83,WNW,288,5.0,9.0,46,0.00,,---,0.01,VWS V14.01,2013-05-05 21:35:00,
2013-05-05 17:40:00,74.4,52.9,29.83,NW,321,0.0,9.0,47,0.00,,---,0.01,VWS V14.01,2013-05-05 21:40:00,
2013-05-05 17:41:00,74.4,52.9,29.83,North,354,6.0,9.0,47,0.00,,---,0.01,VWS V14.01,2013-05-05 21:41:00,
2013-05-05 17:43:00,74.2,52.7,29.83,WNW,290,6.0,9.0,47,0.00,,---,0.01,VWS V14.01,2013-05-05 21:43:00,
2013-05-05 17:44:00,74.0,52.5,29.83,NW,321,0.0,9.0,47,0.00,,---,0.01,VWS V14.01,2013-05-05 21:44:00,
2013-05-05 17:46:00,74.0,53.1,29.83,NNW,340,4.0,9.0,48,0.00,,---,0.01,VWS V14.01,2013-05-05 21:46:00,
2013-05-05 17:49:00,74.0,53.1,29.83,NW,325,5.0,9.0,48,0.00,,---,0.01,VWS V14.01,2013-05-05 21:49:00,
2013-05-05 17:50:00,74.0,53.1,29.83,NNW,342,0.0,9.0,48,0.00,,---,0.01,VWS V14.01,2013-05-05 21:50:00,
2013-05-05 17:54:00,74.4,53.5,29.83,WSW,257,5.0,9.0,48,0.00,,---,0.01,VWS V14.01,2013-05-05 21:54:00,
2013-05-05 17:56:00,74.4,53.5,29.83,NNW,345,0.0,9.0,48,0.00,,---,0.01,VWS V14.01,2013-05-05 21:56:00,
2013-05-05 17:58:00,74.6,54.2,29.83,NW,322,0.0,9.0,49,0.00,,---,0.01,VWS V14.01,2013-05-05 21:58:00,
2013-05-05 18:00:00,74.2,53.8,29.83,WNW,300,3.0,11.0,49,0.00,,---,0.01,VWS V14.01,2013-05-05 22:00:00,
2013-05-05 18:04:00,74.2,53.3,29.83,NNW,329,10.0,11.0,48,0.00,,---,0.01,VWS V14.01,2013-05-05 22:04:00,
2013-05-05 18:06:00,73.5,53.7,29.83,WSW,243,3.0,3.0,50,0.00,,---,0.01,VWS V14.01,2013-05-05 22:06:00,
2013-05-05 18:10:00,73.3,54.6,29.83,NNW,342,2.0,5.0,52,0.00,,---,0.01,VWS V14.01,2013-05-05 22:10:00,
2013-05-05 18:12:00,73.5,54.8,29.83,West,276,5.0,5.0,52,0.00,,---,0.01,VWS V14.01,2013-05-05 22:12:00,
2013-05-05 18:14:00,73.5,54.3,29.83,West,280,6.0,6.0,51,0.00,,---,0.01,VWS V14.01,2013-05-05 22:14:00,
2013-05-05 18:16:00,73.7,55.0,29.83,WNW,293,2.0,6.0,52,0.00,,---,0.01,VWS V14.01,2013-05-05 22:16:00,
2013-05-05 18:18:00,74.0,55.8,29.83,NW,312,3.0,6.0,53,0.00,,---,0.01,VWS V14.01,2013-05-05 22:18:00,
2013-05-05 18:19:00,74.0,55.8,29.83,NW,312,3.0,6.0,53,0.00,,---,0.01,VWS V14.01,2013-05-05 22:19:00,
2013-05-05 18:20:00,74.0,55.3,29.83,North,0,3.0,6.0,52,0.00,,---,0.01,VWS V14.01,2013-05-05 22:20:00,
2013-05-05 18:26:00,74.0,55.3,29.83,WNW,300,3.0,6.0,52,0.00,,---,0.01,VWS V14.01,2013-05-05 22:26:00,
2013-05-05 18:27:00,73.9,55.2,29.83,WNW,295,1.0,6.0,52,0.00,,---,0.01,VWS V14.01,2013-05-05 22:27:00,
2013-05-05 18:29:00,73.9,55.2,29.83,WNW,296,0.0,6.0,52,0.00,,---,0.01,VWS V14.01,2013-05-05 22:29:00,
2013-05-05 18:31:00,73.5,55.3,29.83,WNW,288,7.0,7.0,53,0.00,,---,0.01,VWS V14.01,2013-05-05 22:31:00,
2013-05-05 18:32:00,73.5,55.3,29.83,WNW,283,0.0,7.0,53,0.00,,---,0.01,VWS V14.01,2013-05-05 22:32:00,
2013-05-05 18:35:00,73.3,55.7,29.83,West,266,7.0,7.0,54,0.00,,---,0.01,VWS V14.01,2013-05-05 22:35:00,
2013-05-05 18:36:00,73.3,55.7,29.83,West,281,6.0,7.0,54,0.00,,---,0.01,VWS V14.01,2013-05-05 22:36:00,
2013-05-05 18:37:00,73.3,55.7,29.83,NNW,342,0.0,7.0,54,0.00,,---,0.01,VWS V14.01,2013-05-05 22:37:00,
2013-05-05 18:41:00,73.3,55.7,29.83,NNW,345,0.0,7.0,54,0.00,,---,0.01,VWS V14.01,2013-05-05 22:41:00,
2013-05-05 18:44:00,73.3,56.2,29.83,WSW,242,4.0,7.0,55,0.00,,---,0.01,VWS V14.01,2013-05-05 22:44:00,
2013-05-05 18:46:00,73.0,55.9,29.83,WNW,301,0.0,7.0,55,0.00,,---,0.01,VWS V14.01,2013-05-05 22:46:00,
2013-05-05 18:48:00,73.0,55.9,29.83,WNW,301,0.0,7.0,55,0.00,,---,0.01,VWS V14.01,2013-05-05 22:48:00,
2013-05-05 18:51:00,72.7,55.1,29.84,WSW,255,9.0,9.0,54,0.00,,---,0.01,VWS V14.01,2013-05-05 22:51:00,
2013-05-05 18:55:00,72.1,56.0,29.84,WSW,250,4.0,9.0,57,0.00,,---,0.01,VWS V14.01,2013-05-05 22:55:00,
2013-05-05 18:57:00,71.8,55.8,29.84,NNW,328,0.0,9.0,57,0.00,,---,0.01,VWS V14.01,2013-05-05 22:57:00,
2013-05-05 18:58:00,71.8,55.8,29.84,NNW,328,0.0,9.0,57,0.00,,---,0.01,VWS V14.01,2013-05-05 22:58:00,
2013-05-05 18:59:00,71.6,55.6,29.84,NW,305,0.0,9.0,57,0.00,,---,0.01,VWS V14.01,2013-05-05 22:59:00,
2013-05-05 19:01:00,71.5,56.0,29.84,NW,305,0.0,9.0,58,0.00,,---,0.01,VWS V14.01,2013-05-05 23:01:00,
2013-05-05 19:05:00,71.3,55.8,29.84,NW,326,0.0,9.0,58,0.00,,---,0.01,VWS V14.01,2013-05-05 23:05:00,
2013-05-05 19:06:00,71.1,56.1,29.84,NNW,335,3.0,9.0,59,0.00,,---,0.01,VWS V14.01,2013-05-05 23:06:00,
2013-05-05 19:07:00,70.9,56.3,29.84,North,358,0.0,9.0,60,0.00,,---,0.01,VWS V14.01,2013-05-05 23:07:00,
2013-05-05 19:11:00,70.9,56.3,29.84,North,358,2.0,9.0,60,0.00,,---,0.01,VWS V14.01,2013-05-05 23:11:00,
2013-05-05 19:13:00,70.8,56.2,29.84,NNW,329,4.0,9.0,60,0.00,,---,0.01,VWS V14.01,2013-05-05 23:13:00,
2013-05-05 19:18:00,70.6,56.5,29.84,West,269,0.0,9.0,61,0.00,,---,0.01,VWS V14.01,2013-05-05 23:18:00,
2013-05-05 19:19:00,70.8,56.7,29.84,West,269,0.0,9.0,61,0.00,,---,0.01,VWS V14.01,2013-05-05 23:19:00,
2013-05-05 19:20:00,70.8,56.7,29.84,West,269,0.0,9.0,61,0.00,,---,0.01,VWS V14.01,2013-05-05 23:20:00,
2013-05-05 19:24:00,70.6,56.5,29.84,West,260,0.0,9.0,61,0.00,,---,0.01,VWS V14.01,2013-05-05 23:24:00,
2013-05-05 19:26:00,70.4,56.3,29.84,West,260,0.0,9.0,61,0.00,,---,0.01,VWS V14.01,2013-05-05 23:26:00,
2013-05-05 19:27:00,70.4,56.3,29.84,WNW,294,0.0,9.0,61,0.00,,---,0.01,VWS V14.01,2013-05-05 23:27:00,
2013-05-05 19:29:00,70.4,56.3,29.84,WNW,294,0.0,9.0,61,0.00,,---,0.01,VWS V14.01,2013-05-05 23:29:00,
2013-05-05 19:31:00,70.3,56.2,29.84,WNW,294,0.0,9.0,61,0.00,,---,0.01,VWS V14.01,2013-05-05 23:31:00,
2013-05-05 19:36:00,70.1,56.5,29.84,NW,307,0.0,9.0,62,0.00,,---,0.01,VWS V14.01,2013-05-05 23:36:00,
2013-05-05 19:40:00,70.1,56.5,29.84,NW,307,0.0,9.0,62,0.00,,---,0.01,VWS V14.01,2013-05-05 23:40:00,
2013-05-05 19:45:00,69.8,56.7,29.84,NW,312,0.0,9.0,63,0.00,,---,0.01,VWS V14.01,2013-05-05 23:45:00,
2013-05-05 19:46:00,69.6,56.5,29.84,WNW,300,1.0,9.0,63,0.00,,---,0.01,VWS V14.01,2013-05-05 23:46:00,
2013-05-05 19:47:00,69.4,56.3,29.84,WNW,300,0.0,9.0,63,0.00,,---,0.01,VWS V14.01,2013-05-05 23:47:00,
2013-05-05 19:52:00,69.3,56.6,29.85,WNW,298,0.0,9.0,64,0.00,,---,0.01,VWS V14.01,2013-05-05 23:52:00,
2013-05-05 19:54:00,69.1,56.4,29.85,WNW,298,0.0,9.0,64,0.00,,---,0.01,VWS V14.01,2013-05-05 23:54:00,
2013-05-05 19:55:00,69.1,56.4,29.85,WNW,298,0.0,9.0,64,0.00,,---,0.01,VWS V14.01,2013-05-05 23:55:00,
2013-05-05 19:56:00,69.1,56.4,29.85,WNW,298,0.0,9.0,64,0.00,,---,0.01,VWS V14.01,2013-05-05 23:56:00,
2013-05-05 20:01:00,68.9,56.7,29.85,WNW,298,0.0,9.0,65,0.00,,---,0.01,VWS V14.01,2013-05-06 00:01:00,
2013-05-05 20:06:00,68.9,56.7,29.85,WNW,298,0.0,9.0,65,0.00,,---,0.01,VWS V14.01,2013-05-06 00:06:00,
2013-05-05 20:08:00,68.6,56.4,29.85,WNW,298,0.0,9.0,65,0.00,,---,0.01,VWS V14.01,2013-05-06 00:08:00,
2013-05-05 20:09:00,68.6,56.8,29.85,WNW,298,0.0,9.0,66,0.00,,---,0.01,VWS V14.01,2013-05-06 00:09:00,
2013-05-05 20:11:00,68.4,56.6,29.85,WNW,298,0.0,9.0,66,0.00,,---,0.01,VWS V14.01,2013-05-06 00:11:00,
2013-05-05 20:16:00,68.3,56.5,29.85,WNW,298,0.0,9.0,66,0.00,,---,0.01,VWS V14.01,2013-05-06 00:16:00,
2013-05-05 20:21:00,68.1,56.7,29.85,WNW,298,0.0,9.0,67,0.00,,---,0.01,VWS V14.01,2013-05-06 00:21:00,
2013-05-05 20:23:00,67.8,56.5,29.85,WNW,298,0.0,9.0,67,0.00,,---,0.01,VWS V14.01,2013-05-06 00:23:00,
2013-05-05 20:26:00,67.6,56.3,29.85,WNW,298,0.0,9.0,67,0.00,,---,0.01,VWS V14.01,2013-05-06 00:26:00,
2013-05-05 20:27:00,67.4,56.5,29.85,WNW,298,0.0,9.0,68,0.00,,---,0.01,VWS V14.01,2013-05-06 00:27:00,
2013-05-05 20:29:00,67.3,56.4,29.85,WNW,298,0.0,9.0,68,0.00,,---,0.01,VWS V14.01,2013-05-06 00:29:00,
2013-05-05 20:30:00,67.1,56.2,29.85,WNW,298,0.0,9.0,68,0.00,,---,0.01,VWS V14.01,2013-05-06 00:30:00,
2013-05-05 20:32:00,67.1,56.2,29.85,WNW,298,0.0,9.0,68,0.00,,---,0.01,VWS V14.01,2013-05-06 00:32:00,
2013-05-05 20:33:00,66.9,56.0,29.85,WNW,298,0.0,9.0,68,0.00,,---,0.01,VWS V14.01,2013-05-06 00:33:00,
2013-05-05 20:35:00,66.8,56.3,29.85,WNW,298,0.0,9.0,69,0.00,,---,0.01,VWS V14.01,2013-05-06 00:35:00,
2013-05-05 20:36:00,66.8,56.3,29.85,WNW,298,0.0,9.0,69,0.00,,---,0.01,VWS V14.01,2013-05-06 00:36:00,
2013-05-05 20:38:00,66.6,56.1,29.85,WNW,298,0.0,9.0,69,0.00,,---,0.01,VWS V14.01,2013-05-06 00:38:00,
2013-05-05 20:42:00,66.4,55.9,29.85,WNW,298,0.0,9.0,69,0.00,,---,0.01,VWS V14.01,2013-05-06 00:42:00,
2013-05-05 20:44:00,66.3,56.2,29.85,WNW,298,0.0,9.0,70,0.00,,---,0.01,VWS V14.01,2013-05-06 00:44:00,
2013-05-05 20:46:00,66.1,56.0,29.85,WNW,298,0.0,9.0,70,0.00,,---,0.01,VWS V14.01,2013-05-06 00:46:00,
2013-05-05 20:50:00,65.6,56.0,29.86,WNW,298,0.0,9.0,71,0.00,,---,0.01,VWS V14.01,2013-05-06 00:50:00,
2013-05-05 20:51:00,65.6,56.0,29.86,WNW,298,0.0,9.0,71,0.00,,---,0.01,VWS V14.01,2013-05-06 00:51:00,
2013-05-05 20:54:00,65.5,56.2,29.86,WNW,298,0.0,9.0,72,0.00,,---,0.01,VWS V14.01,2013-05-06 00:54:00,
2013-05-05 20:56:00,65.3,56.4,29.86,WNW,298,0.0,9.0,73,0.00,,---,0.01,VWS V14.01,2013-05-06 00:56:00,
2013-05-05 21:00:00,65.0,56.2,29.86,WNW,298,0.0,9.0,73,0.00,,---,0.01,VWS V14.01,2013-05-06 01:00:00,
2013-05-05 21:01:00,64.8,56.0,29.86,WNW,298,0.0,9.0,73,0.00,,---,0.01,VWS V14.01,2013-05-06 01:01:00,
2013-05-05 21:02:00,64.7,55.9,29.86,WNW,298,0.0,9.0,73,0.00,,---,0.01,VWS V14.01,2013-05-06 01:02:00,
2013-05-05 21:08:00,64.3,55.8,29.86,WNW,298,0.0,9.0,74,0.00,,---,0.01,VWS V14.01,2013-05-06 01:08:00,
2013-05-05 21:09:00,64.2,56.1,29.86,WNW,298,0.0,9.0,75,0.00,,---,0.01,VWS V14.01,2013-05-06 01:09:00,
2013-05-05 21:10:00,64.2,56.1,29.86,WNW,298,0.0,9.0,75,0.00,,---,0.01,VWS V14.01,2013-05-06 01:10:00,
2013-05-05 21:14:00,64.0,55.9,29.86,WNW,298,0.0,9.0,75,0.00,,---,0.01,VWS V14.01,2013-05-06 01:14:00,
2013-05-05 21:15:00,63.9,56.2,29.86,WNW,298,0.0,9.0,76,0.00,,---,0.01,VWS V14.01,2013-05-06 01:15:00,
2013-05-05 21:19:00,63.5,55.8,29.86,WNW,298,0.0,9.0,76,0.00,,---,0.01,VWS V14.01,2013-05-06 01:19:00,
2013-05-05 21:21:00,63.2,55.9,29.86,WNW,298,0.0,9.0,77,0.00,,---,0.01,VWS V14.01,2013-05-06 01:21:00,
2013-05-05 21:24:00,63.2,56.2,29.86,WNW,298,0.0,9.0,78,0.00,,---,0.01,VWS V14.01,2013-05-06 01:24:00,
2013-05-05 21:27:00,62.9,56.3,29.86,WNW,298,0.0,9.0,79,0.00,,---,0.01,VWS V14.01,2013-05-06 01:27:00,
2013-05-05 21:31:00,62.9,56.3,29.86,WNW,298,0.0,9.0,79,0.00,,---,0.01,VWS V14.01,2013-05-06 01:31:00,
2013-05-05 21:39:00,62.7,56.1,29.86,WNW,298,0.0,9.0,79,0.00,,---,0.01,VWS V14.01,2013-05-06 01:39:00,
2013-05-05 21:41:00,62.3,56.1,29.86,WNW,298,0.0,9.0,80,0.00,,---,0.01,VWS V14.01,2013-05-06 01:41:00,
2013-05-05 21:46:00,61.8,56.2,29.86,WNW,298,0.0,9.0,82,0.00,,---,0.01,VWS V14.01,2013-05-06 01:46:00,
2013-05-05 21:48:00,61.8,56.2,29.86,WNW,298,0.0,9.0,82,0.00,,---,0.01,VWS V14.01,2013-05-06 01:48:00,
2013-05-05 21:52:00,61.8,56.2,29.86,WNW,298,0.0,9.0,82,0.00,,---,0.01,VWS V14.01,2013-05-06 01:52:00,
2013-05-05 21:53:00,61.6,56.4,29.86,WNW,298,0.0,9.0,83,0.00,,---,0.01,VWS V14.01,2013-05-06 01:53:00,
2013-05-05 21:58:00,61.5,56.3,29.86,WNW,298,0.0,9.0,83,0.00,,---,0.01,VWS V14.01,2013-05-06 01:58:00,
2013-05-05 21:59:00,61.3,56.1,29.86,WNW,298,0.0,9.0,83,0.00,,---,0.01,VWS V14.01,2013-05-06 01:59:00,
2013-05-05 22:00:00,61.2,56.0,29.86,WNW,298,0.0,9.0,83,0.00,,---,0.01,VWS V14.01,2013-05-06 02:00:00,
2013-05-05 22:03:00,61.2,56.3,29.86,WNW,298,0.0,9.0,84,0.00,,---,0.01,VWS V14.01,2013-05-06 02:03:00,
2013-05-05 22:05:00,61.0,56.1,29.86,WNW,298,0.0,9.0,84,0.00,,---,0.01,VWS V14.01,2013-05-06 02:05:00,
2013-05-05 22:08:00,61.0,56.1,29.86,WNW,298,0.0,0.0,84,0.00,,---,0.01,VWS V14.01,2013-05-06 02:08:00,
2013-05-05 22:10:00,60.9,56.0,29.86,WNW,298,0.0,0.0,84,0.00,,---,0.01,VWS V14.01,2013-05-06 02:10:00,
2013-05-05 22:11:00,60.9,56.0,29.86,WNW,298,0.0,0.0,84,0.00,,---,0.01,VWS V14.01,2013-05-06 02:11:00,
2013-05-05 22:12:00,60.7,55.8,29.86,WNW,298,0.0,0.0,84,0.00,,---,0.01,VWS V14.01,2013-05-06 02:12:00,
2013-05-05 22:18:00,60.5,56.0,29.86,WNW,298,0.0,0.0,85,0.00,,---,0.01,VWS V14.01,2013-05-06 02:18:00,
2013-05-05 22:19:00,60.4,55.9,29.87,WNW,298,0.0,0.0,85,0.00,,---,0.01,VWS V14.01,2013-05-06 02:19:00,
2013-05-05 22:20:00,60.4,55.9,29.87,WNW,298,0.0,0.0,85,0.00,,---,0.01,VWS V14.01,2013-05-06 02:20:00,
2013-05-05 22:21:00,60.4,55.9,29.87,WNW,298,0.0,0.0,85,0.00,,---,0.01,VWS V14.01,2013-05-06 02:21:00,
2013-05-05 22:23:00,60.2,56.0,29.87,WNW,298,0.0,0.0,86,0.00,,---,0.01,VWS V14.01,2013-05-06 02:23:00,
2013-05-05 22:25:00,60.2,56.0,29.87,WNW,298,0.0,0.0,86,0.00,,---,0.01,VWS V14.01,2013-05-06 02:25:00,
2013-05-05 22:30:00,60.2,56.0,29.87,WNW,298,0.0,0.0,86,0.00,,---,0.01,VWS V14.01,2013-05-06 02:30:00,
2013-05-05 22:32:00,60.1,55.9,29.87,WNW,298,0.0,0.0,86,0.00,,---,0.01,VWS V14.01,2013-05-06 02:32:00,
2013-05-05 22:33:00,59.9,56.0,29.87,WNW,298,0.0,0.0,87,0.00,,---,0.01,VWS V14.01,2013-05-06 02:33:00,
2013-05-05 22:34:00,59.9,56.0,29.87,WNW,298,0.0,0.0,87,0.00,,---,0.01,VWS V14.01,2013-05-06 02:34:00,
2013-05-05 22:40:00,59.8,55.9,29.87,WNW,298,0.0,0.0,87,0.00,,---,0.01,VWS V14.01,2013-05-06 02:40:00,
2013-05-05 22:41:00,59.8,55.9,29.87,WNW,298,0.0,0.0,87,0.00,,---,0.01,VWS V14.01,2013-05-06 02:41:00,
2013-05-05 22:43:00,59.8,56.2,29.87,WNW,298,0.0,0.0,88,0.00,,---,0.01,VWS V14.01,2013-05-06 02:43:00,
2013-05-05 22:44:00,59.8,56.2,29.87,WNW,298,0.0,0.0,88,0.00,,---,0.01,VWS V14.01,2013-05-06 02:44:00,
2013-05-05 22:47:00,59.6,56.0,29.87,WNW,298,0.0,0.0,88,0.00,,---,0.01,VWS V14.01,2013-05-06 02:47:00,
2013-05-05 22:51:00,59.6,56.0,29.87,WNW,298,0.0,0.0,88,0.00,,---,0.01,VWS V14.01,2013-05-06 02:51:00,
2013-05-05 22:54:00,59.6,56.4,29.87,WNW,298,0.0,0.0,89,0.00,,---,0.01,VWS V14.01,2013-05-06 02:54:00,
2013-05-05 22:56:00,59.6,56.4,29.87,WNW,298,0.0,0.0,89,0.00,,---,0.01,VWS V14.01,2013-05-06 02:56:00,
2013-05-05 22:57:00,59.6,56.4,29.87,WNW,298,0.0,0.0,89,0.00,,---,0.01,VWS V14.01,2013-05-06 02:57:00,
2013-05-05 22:58:00,59.5,56.3,29.87,WNW,298,0.0,0.0,89,0.00,,---,0.01,VWS V14.01,2013-05-06 02:58:00,
2013-05-05 23:02:00,59.5,56.6,29.87,WNW,298,0.0,0.0,90,0.00,,---,0.01,VWS V14.01,2013-05-06 03:02:00,
2013-05-05 23:03:00,59.5,56.6,29.88,WNW,298,0.0,0.0,90,0.00,,---,0.01,VWS V14.01,2013-05-06 03:03:00,
2013-05-05 23:09:00,59.5,56.6,29.88,WNW,298,0.0,0.0,90,0.00,,---,0.01,VWS V14.01,2013-05-06 03:09:00,
2013-05-05 23:10:00,59.5,56.6,29.88,WNW,298,0.0,0.0,90,0.00,,---,0.01,VWS V14.01,2013-05-06 03:10:00,
2013-05-05 23:12:00,59.5,56.6,29.88,WNW,298,0.0,0.0,90,0.00,,---,0.01,VWS V14.01,2013-05-06 03:12:00,
2013-05-05 23:15:00,59.5,56.6,29.88,WNW,298,0.0,0.0,90,0.00,,---,0.01,VWS V14.01,2013-05-06 03:15:00,
2013-05-05 23:16:00,59.5,56.6,29.88,WNW,298,0.0,0.0,90,0.00,,---,0.01,VWS V14.01,2013-05-06 03:16:00,
2013-05-05 23:17:00,59.5,56.9,29.88,WNW,298,0.0,0.0,91,0.00,,---,0.01,VWS V14.01,2013-05-06 03:17:00,
2013-05-05 23:20:00,59.5,56.9,29.87,WNW,298,0.0,0.0,91,0.00,,---,0.01,VWS V14.01,2013-05-06 03:20:00,
2013-05-05 23:22:00,59.5,56.9,29.87,WNW,298,0.0,0.0,91,0.00,,---,0.01,VWS V14.01,2013-05-06 03:22:00,
2013-05-05 23:26:00,59.5,56.9,29.87,WNW,298,0.0,0.0,91,0.00,,---,0.01,VWS V14.01,2013-05-06 03:26:00,
2013-05-05 23:29:00,59.5,56.9,29.87,WNW,298,0.0,0.0,91,0.00,,---,0.01,VWS V14.01,2013-05-06 03:29:00,
2013-05-05 23:31:00,59.5,56.9,29.87,WNW,298,0.0,0.0,91,0.00,,---,0.01,VWS V14.01,2013-05-06 03:31:00,
2013-05-05 23:32:00,59.5,56.9,29.87,WNW,298,0.0,0.0,91,0.00,,---,0.01,VWS V14.01,2013-05-06 03:32:00,
2013-05-05 23:36:00,59.5,56.9,29.86,WNW,298,0.0,0.0,91,0.00,,---,0.01,VWS V14.01,2013-05-06 03:36:00,
2013-05-05 23:37:00,59.3,56.7,29.86,WNW,298,0.0,0.0,91,0.00,,---,0.01,VWS V14.01,2013-05-06 03:37:00,
2013-05-05 23:40:00,59.3,57.0,29.86,WNW,298,0.0,0.0,92,0.00,,---,0.01,VWS V14.01,2013-05-06 03:40:00,
2013-05-05 23:41:00,59.3,57.0,29.86,WNW,298,0.0,0.0,92,0.00,,---,0.01,VWS V14.01,2013-05-06 03:41:00,
2013-05-05 23:45:00,59.3,57.0,29.86,WNW,298,0.0,0.0,92,0.00,,---,0.01,VWS V14.01,2013-05-06 03:45:00,
2013-05-05 23:47:00,59.3,57.0,29.86,WNW,298,0.0,0.0,92,0.00,,---,0.01,VWS V14.01,2013-05-06 03:47:00,
2013-05-05 23:53:00,59.2,56.9,29.86,WNW,298,0.0,0.0,92,0.00,,---,0.01,VWS V14.01,2013-05-06 03:53:00,
2013-05-05 23:55:00,59.2,56.9,29.86,WNW,298,0.0,0.0,92,0.00,,---,0.01,VWS V14.01,2013-05-06 03:55:00,
2013-05-05 23:58:00,59.2,56.9,29.86,WNW,298,0.0,0.0,92,0.00,,---,0.01,VWS V14.01,2013-05-06 03:58:00,
2013-05-05 23:59:00,59.2,56.9,29.86,WNW,298,0.0,0.0,92,0.00,,---,0.01,VWS V14.01,2013-05-06 03:59:00,